GEFSGL_con_prob3kmehi_156.txt.gz
EHI
10 7 4 2 1 0 0 0 0 0 0 0 0 0 0 0 0 0 0 0 0 0 0 0 0 0 0 0 0 0 0 0 0 0 0 0 0 0 0 0 0 0 0
6 5 3 1 0 0 0 0 0 0 0 0 0 0 0 0 0 0 0 0 0 0 0 0 0 0 0 0 0 0 0 0 0 0 0 0 0 0 0 0 0 0 0
3 3 2 1 0 1 0 0 0 0 0 0 0 0 0 0 0 0 0 0 0 0 0 0 0 0 0 0 0 0 0 0 0 0 0 0 0 0 0 0 0 0 0
4 3 2 1 0 0 0 0 0 0 0 1 1 1 1 1 1 1 1 1 1 1 1 1 0 0 0 1 0 0 0 0 0 0 0 0 0 0 0 0 0 0 0
5 4 2 1 0 0 0 0 0 0 1 2 3 3 3 2 2 2 2 2 2 2 2 2 1 0 0 0 0 0 0 0 0 0 0 0 0 0 0 0 0 0 0
5 3 1 1 0 0 0 0 0 1 3 4 4 4 4 3 3 1 1 2 2 2 3 3 2 0 0 0 0 0 0 0 0 0 0 0 0 0 0 0 0 0 0
2 1 0 0 0 0 0 0 0 2 4 5 4 3 3 2 2 1 0 1 1 1 2 2 1 0 1 1 1 0 0 0 0 0 0 0 0 0 0 0 0 0 0
1 0 0 0 0 0 0 0 1 2 4 4 3 1 1 1 1 0 0 0 0 0 1 2 1 0 1 2 1 0 0 0 0 0 0 0 0 0 0 0 0 0 0
0 0 0 0 0 0 0 0 1 2 3 2 1 0 0 0 0 0 0 0 0 0 1 1 0 0 1 1 1 0 0 1 1 0 0 0 0 0 0 0 0 0 0
0 0 0 0 0 0 0 0 1 1 1 1 0 0 0 0 0 0 0 0 0 0 0 0 0 0 0 0 0 0 0 1 2 1 1 0 0 0 0 0 0 0 0
0 0 0 0 0 0 0 0 0 0 0 0 0 0 0 0 0 0 0 0 0 0 0 0 0 0 0 0 0 0 0 1 2 2 1 1 0 0 0 0 0 0 0
0 0 0 0 0 0 0 0 0 0 0 0 0 0 0 0 0 0 0 0 0 0 0 0 0 0 0 0 0 0 0 0 1 1 1 1 1 0 0 0 0 0 0
0 0 0 0 0 0 0 0 0 0 0 0 0 0 0 0 0 0 0 0 0 0 0 0 0 0 0 0 0 0 0 0 0 0 0 0 0 0 0 0 0 0 0
0 0 0 0 0 0 0 0 0 0 0 0 0 0 0 0 0 0 0 0 0 0 0 0 0 0 0 0 0 0 0 0 0 0 0 0 0 0 0 0 0 0 0
0 0 0 0 0 0 0 0 0 0 0 0 0 0 0 0 0 0 0 0 0 0 0 0 0 0 0 0 0 0 0 0 0 0 0 0 0 0 0 0 0 0 0
0 0 0 0 0 0 0 0 0 0 0 0 0 0 0 0 0 0 0 0 0 0 0 0 0 0 0 0 0 0 0 0 0 0 0 0 0 0 0 0 0 0 0
0 0 0 0 0 0 0 0 0 0 0 0 0 0 0 0 0 0 0 0 0 0 0 0 0 0 0 0 0 0 0 0 0 0 0 0 0 0 0 0 0 0 0
0 0 0 0 0 0 0 0 0 0 0 0 0 0 0 0 0 0 0 0 0 0 0 0 0 0 0 0 0 0 0 0 0 0 0 0 0 0 0 0 0 0 0
0 0 0 0 0 0 0 0 0 0 0 0 0 0 0 0 0 0 0 0 0 0 0 0 0 0 0 0 0 0 0 0 0 0 0 0 0 0 0 0 0 0 0
0 0 0 0 0 0 0 0 0 0 0 0 0 0 0 0 0 0 0 0 0 0 0 0 0 0 0 0 0 0 0 0 0 0 0 0 0 0 0 0 0 0 0
0 0 0 0 0 0 0 0 0 0 0 0 0 0 0 0 0 0 0 0 0 0 0 0 0 0 0 0 0 0 0 0 0 0 0 0 0 0 0 0 0 0 0
0 0 0 0 0 0 0 0 0 0 0 0 0 0 0 0 0 0 0 0 0 0 0 0 0 0 0 0 0 0 0 0 0 0 0 0 0 0 0 0 0 0 0
0 0 0 0 0 0 0 0 0 0 0 0 0 0 0 0 0 0 0 0 0 0 0 0 0 0 0 0 0 0 0 0 0 0 0 0 0 0 0 0 0 0 0
0 0 0 0 0 0 0 0 0 0 0 0 0 0 0 0 0 0 0 0 0 0 0 0 0 0 0 0 0 0 0 0 0 0 0 0 0 0 0 0 0 0 0
0 0 0 0 0 0 0 0 0 0 0 0 0 0 0 0 0 0 0 0 0 0 0 0 0 0 0 0 0 0 0 0 0 0 0 0 0 0 0 0 0 0 0
0 0 0 0 0 0 0 0 0 0 0 0 0 0 0 0 0 0 0 0 0 0 0 0 0 0 0 0 0 0 0 0 0 0 0 0 0 0 0 0 0 0 0

GEFSGL_con_prob3kmehi_162.txt.gz
EHI
23 21 16 9 4 2 3 5 5 3 1 2 3 2 1 1 2 3 2 0 0 1 2 2 3 5 7 9 11 10 9 8 5 2 3 5 5 3 2 1 1 0 0
22 21 18 13 6 4 4 5 4 2 0 1 2 2 1 2 3 4 3 1 1 2 4 6 6 6 7 8 9 9 8 8 6 4 4 5 5 4 3 3 1 1 1
21 21 21 17 10 6 5 5 4 2 1 1 1 1 2 4 5 5 5 5 4 5 7 9 7 6 7 8 7 7 7 7 8 6 5 5 5 4 5 4 3 3 2
21 21 21 18 13 9 8 7 6 3 2 2 2 2 3 5 6 7 7 8 8 8 8 8 7 6 6 7 6 6 6 7 7 6 5 5 4 4 5 4 4 3 2
22 21 20 18 16 15 13 10 7 5 4 4 4 4 4 5 7 7 8 8 9 9 8 6 5 5 4 4 4 4 5 6 6 6 5 4 3 3 4 4 3 2 2
23 21 20 18 17 16 15 12 9 8 6 6 6 6 5 5 5 5 5 6 7 7 6 5 4 4 4 3 2 2 2 3 5 5 5 4 3 3 3 3 3 2 2
21 19 18 17 15 13 12 12 12 11 9 8 8 7 6 5 3 2 2 3 4 4 3 3 3 3 4 4 3 1 1 2 2 3 4 3 3 3 3 3 3 3 3
19 18 17 16 12 10 9 10 11 12 11 9 8 8 6 3 1 0 0 1 2 2 2 2 2 2 3 3 2 2 2 2 1 1 2 2 2 2 3 3 3 3 3
18 17 15 12 9 8 7 8 9 10 10 9 8 7 5 2 0 0 0 0 0 0 1 1 1 1 1 1 1 1 1 1 1 0 1 1 1 1 1 2 3 3 3
16 14 11 7 6 6 7 8 8 7 7 7 6 5 3 1 0 0 0 0 0 0 1 1 1 0 0 0 0 0 0 0 0 0 0 0 0 1 1 2 3 3 3
13 10 7 4 4 5 6 7 7 6 4 4 4 3 2 1 0 0 0 0 0 0 1 2 1 0 0 0 0 0 0 0 0 0 0 0 0 1 2 2 3 3 3
9 6 3 2 2 2 3 5 5 4 3 3 3 3 2 1 1 0 0 0 0 1 2 2 1 0 0 0 0 0 0 0 0 0 0 0 0 1 1 2 3 3 3
4 2 0 0 0 0 1 2 2 2 2 2 3 3 3 2 2 1 0 0 0 1 1 1 1 0 0 0 0 0 0 0 0 0 0 0 0 0 0 1 2 3 3
2 1 0 0 0 0 1 1 1 1 1 1 1 2 2 2 2 1 0 0 0 0 0 0 0 0 0 0 0 0 0 0 0 0 0 0 0 0 0 0 1 2 1
1 0 0 0 0 0 0 0 0 1 0 0 0 1 1 1 1 0 0 0 0 0 0 0 0 0 0 0 0 0 0 0 0 0 0 0 0 0 0 0 0 0 0
0 0 0 0 0 0 0 0 0 0 0 0 0 0 0 0 0 0 0 0 0 0 0 0 0 0 0 0 0 0 0 0 0 0 0 0 0 0 0 0 0 0 0
0 0 0 0 0 0 0 0 0 0 0 0 0 0 0 0 0 0 0 0 0 0 0 0 0 0 0 0 0 0 0 0 0 0 0 0 0 0 0 0 0 0 0
0 0 0 0 0 0 0 0 0 0 0 0 0 0 0 0 0 0 0 0 0 0 0 0 0 0 0 0 0 0 0 0 0 0 0 0 0 0 0 0 0 0 0
0 0 0 0 0 0 0 0 0 0 0 0 0 0 0 0 0 0 0 0 0 0 0 0 0 0 0 0 0 0 0 0 0 0 0 0 0 0 0 0 0 0 0
0 0 0 0 0 0 0 0 0 0 0 0 0 0 0 0 0 0 0 0 0 0 0 0 0 0 0 0 0 0 0 0 0 0 0 0 0 0 0 0 0 0 0
0 0 0 0 0 0 0 0 0 0 0 0 0 0 0 0 0 0 0 0 0 0 0 0 0 0 0 0 0 0 0 0 0 0 0 0 0 0 0 0 0 0 0
0 0 0 0 0 0 0 0 0 0 0 0 0 0 0 0 0 0 0 0 0 0 0 0 0 0 0 0 0 0 0 0 0 0 0 0 0 0 0 0 0 0 0
0 0 0 0 0 0 0 0 0 0 0 0 0 0 0 0 0 0 0 0 0 0 0 0 0 0 0 0 0 0 0 0 0 0 0 0 0 0 0 0 0 0 0
0 0 0 0 0 0 0 0 0 0 0 0 0 0 0 0 0 0 0 0 0 0 0 0 0 0 0 0 0 0 0 0 0 0 0 0 0 0 0 0 0 0 0
0 0 0 0 0 0 0 0 0 0 0 0 0 0 0 0 0 0 0 0 0 0 0 0 0 0 0 0 0 0 0 0 0 0 0 0 0 0 0 0 0 0 0
0 0 0 0 0 0 0 0 0 0 0 0 0 0 0 0 0 0 0 0 0 0 0 0 0 0 0 0 0 0 0 0 0 0 0 0 0 0 0 0 0 0 0

GEFSGL_con_prob3kmehi_168.txt.gz
EHI
50 46 41 37 32 29 27 24 21 17 14 13 13 14 14 13 13 12 8 6 8 9 10 14 17 16 15 14 12 8 6 5 3 1 2 7 9 7 5 5 5 4 3
49 47 42 37 34 32 29 26 24 21 19 15 13 13 12 12 12 11 9 9 9 10 10 13 16 16 14 13 10 7 5 5 3 1 2 5 6 6 5 5 4 3 3
48 47 44 39 36 34 30 27 25 25 23 19 15 13 12 11 11 10 9 10 10 9 9 11 13 13 12 10 8 6 5 4 3 3 3 3 3 4 3 2 2 2 2
47 47 45 40 37 34 30 26 25 24 22 19 16 14 13 11 9 8 7 8 8 8 8 7 7 8 7 5 5 5 5 4 3 3 3 3 3 3 2 1 0 1 1
47 47 45 40 38 36 32 27 25 23 21 19 17 15 12 8 5 4 4 5 5 6 6 4 4 4 4 3 3 4 4 3 3 3 3 4 3 3 3 2 1 1 0
47 47 44 40 37 34 30 27 25 25 23 20 17 15 10 5 2 1 2 3 4 5 5 5 4 3 2 3 3 3 3 2 3 3 4 4 4 4 4 3 2 1 1
47 46 44 41 36 32 28 25 25 26 24 20 17 15 10 4 1 0 0 1 3 5 6 6 5 2 1 2 2 2 1 1 2 2 3 4 3 3 3 2 1 1 0
47 45 42 38 34 30 27 24 24 25 23 18 15 13 9 5 1 0 0 0 1 2 4 5 4 1 0 1 1 1 1 1 1 1 1 1 1 1 1 1 0 0 0
45 42 39 35 31 30 28 24 21 20 18 14 11 9 7 4 2 0 0 0 0 0 1 2 2 1 0 0 0 0 0 1 1 0 0 0 0 0 0 0 0 0 0
41 39 36 34 30 28 26 22 17 13 11 8 6 6 5 4 2 0 0 0 0 0 0 0 0 0 0 0 0 1 0 0 0 0 0 0 0 0 0 0 0 0 0
37 37 36 34 28 23 21 18 13 9 7 6 5 5 4 3 1 0 0 0 0 0 0 1 1 0 0 0 0 0 0 0 0 0 0 0 0 0 0 0 0 0 0
33 33 32 30 23 17 14 12 9 7 6 5 4 4 4 3 1 0 0 0 0 0 0 1 1 0 0 0 0 0 0 0 0 0 0 0 0 0 0 0 0 0 0
26 25 23 21 15 9 7 7 5 4 4 4 4 4 3 3 2 1 1 0 0 0 0 1 1 0 0 0 0 0 0 0 0 0 0 0 0 0 0 0 0 0 0
19 17 15 12 8 3 2 2 1 1 2 2 2 3 3 3 2 2 2 1 0 0 0 0 0 0 0 0 0 0 0 0 0 0 0 0 0 0 0 0 0 0 0
14 13 10 7 3 1 0 0 0 0 1 1 1 1 2 2 1 1 2 1 0 0 0 0 0 0 0 0 0 0 0 0 0 0 0 0 0 0 0 0 0 0 0
12 9 6 4 1 0 0 0 0 0 0 0 0 0 1 1 0 0 1 1 0 0 0 0 0 0 0 0 0 0 0 0 0 0 0 0 0 0 0 0 0 0 0
8 6 3 1 0 0 0 0 0 0 0 0 0 0 0 0 0 0 0 0 0 0 0 0 0 0 0 0 0 0 0 0 0 0 0 0 0 0 0 0 0 0 0
4 3 1 0 0 0 0 0 0 0 0 0 0 0 0 0 0 0 0 0 0 0 0 0 0 0 0 0 0 0 0 0 0 0 0 0 0 0 0 0 0 0 0
2 1 0 0 0 0 0 0 0 0 0 0 0 0 0 0 0 0 0 0 0 0 0 0 0 0 0 0 0 0 0 0 0 0 0 0 0 0 0 0 0 0 0
1 0 0 0 0 0 0 0 0 0 0 0 0 0 0 0 0 0 0 0 0 0 0 0 0 0 0 0 0 0 0 0 0 0 0 0 0 0 0 0 0 0 0
0 0 0 0 0 0 0 0 0 0 0 0 0 0 0 0 0 0 0 0 0 0 0 0 0 0 0 0 0 0 0 0 0 0 0 0 0 0 0 0 0 0 0
0 0 0 0 0 0 0 0 0 0 0 0 0 0 0 0 0 0 0 0 0 0 0 0 0 0 0 0 0 0 0 0 0 0 0 0 0 0 0 0 0 0 0
1 0 0 0 0 0 0 0 0 0 0 0 0 0 0 0 0 0 0 0 0 0 0 0 0 0 0 0 0 0 0 0 0 0 0 0 0 0 0 0 0 0 0
1 0 0 0 0 0 0 0 0 0 0 0 0 0 0 0 0 0 0 0 0 0 0 0 0 0 0 0 0 0 0 0 0 0 0 0 0 0 0 0 0 0 0
1 0 0 0 0 0 0 0 0 0 0 0 0 0 0 0 0 0 0 0 0 0 0 0 0 0 0 0 0 0 0 0 0 0 0 0 0 0 0 0 0 0 0
0 0 0 0 0 0 0 0 0 0 0 0 0 0 0 0 0 0 0 0 0 0 0 0 0 0 0 0 0 0 0 0 0 0 0 0 0 0 0 0 0 0 0

GEFSGL_con_prob3kmehi_174.txt.gz
EHI
34 31 25 16 10 8 7 6 6 4 1 0 1 2 2 1 0 0 0 0 0 0 0 0 0 0 0 0 0 0 0 1 0 0 0 0 0 0 0 0 0 0 0
33 31 26 18 12 10 9 8 7 4 1 0 1 2 2 1 0 0 0 0 0 0 0 0 0 0 0 0 0 0 0 1 1 1 0 0 0 0 0 0 0 0 0
33 30 25 19 15 13 12 9 7 4 1 1 2 2 1 1 0 0 0 0 0 0 0 0 0 0 0 0 0 0 0 1 1 1 0 0 0 0 0 0 0 0 0
32 29 24 19 16 15 14 11 7 3 2 2 2 1 0 0 0 0 0 0 0 0 0 0 0 0 0 0 0 0 0 0 1 1 0 0 0 0 0 0 0 0 0
32 29 24 20 17 15 14 11 8 5 4 3 1 0 0 0 0 0 0 0 0 0 0 0 0 0 0 0 0 0 0 0 0 0 0 0 0 0 0 0 0 0 0
33 30 24 20 17 15 13 10 9 7 5 3 1 0 0 0 0 0 0 0 0 0 0 0 0 0 0 0 0 0 0 0 0 0 0 0 0 0 0 0 0 0 0
32 28 23 20 18 15 13 11 9 6 4 3 1 0 0 0 0 0 0 0 0 0 0 0 0 0 0 0 0 0 0 0 0 0 0 0 0 0 0 0 0 0 0
29 25 21 20 18 15 12 11 7 4 3 2 1 0 0 0 0 0 0 0 0 0 0 0 0 0 0 0 0 0 0 0 0 0 0 0 0 0 0 0 0 0 0
25 23 19 18 16 13 9 7 4 1 1 1 0 0 0 0 0 0 0 0 0 0 0 0 0 0 0 0 0 0 0 0 0 0 0 0 0 0 0 0 0 0 0
22 20 17 15 13 9 6 3 1 0 0 0 0 0 0 0 0 0 0 0 0 0 0 0 0 0 0 0 0 0 0 0 0 0 0 0 0 0 0 0 0 0 0
17 16 14 11 9 6 3 1 0 0 0 0 0 0 0 0 0 0 0 0 0 0 0 0 0 0 0 0 0 0 0 0 0 0 0 0 0 0 0 0 0 0 0
15 13 10 8 6 3 1 0 0 0 0 0 0 0 0 0 0 0 0 0 0 0 0 0 0 0 0 0 0 0 0 0 0 0 0 0 0 0 0 0 0 0 0
14 11 8 6 4 2 0 0 0 0 0 0 0 0 0 0 0 0 0 0 0 0 0 0 0 0 0 0 0 0 0 0 0 0 0 0 0 0 0 0 0 0 0
12 9 5 3 2 0 0 0 0 0 0 0 0 0 0 0 0 0 0 0 0 0 0 0 0 0 0 0 0 0 0 0 0 0 0 0 0 0 0 0 0 0 0
7 5 2 1 0 0 0 0 0 0 0 0 0 0 0 0 0 0 0 0 0 0 0 0 0 0 0 0 0 0 0 0 0 0 0 0 0 0 0 0 0 0 0
3 1 0 0 0 0 0 0 0 0 0 0 0 0 0 0 0 0 0 0 0 0 0 0 0 0 0 0 0 0 0 0 0 0 0 0 0 0 0 0 0 0 0
2 1 0 0 0 0 0 0 0 0 0 0 0 0 0 0 0 0 0 0 0 0 0 0 0 0 0 0 0 0 0 0 0 0 0 0 0 0 0 0 0 0 0
2 1 0 0 0 0 0 0 0 0 0 0 0 0 0 0 0 0 0 0 0 0 0 0 0 0 0 0 0 0 0 0 0 0 0 0 0 0 0 0 0 0 0
1 0 0 0 0 0 0 0 0 0 0 0 0 0 0 0 0 0 0 0 0 0 0 0 0 0 0 0 0 0 0 0 0 0 0 0 0 0 0 0 0 0 0
0 0 0 0 0 0 0 0 0 0 0 0 0 0 0 0 0 0 0 0 0 0 0 0 0 0 0 0 0 0 0 0 0 0 0 0 0 0 0 0 0 0 0
0 0 0 0 0 0 0 0 0 0 0 0 0 0 0 0 0 0 0 0 0 0 0 0 0 0 0 0 0 0 0 0 0 0 0 0 0 0 0 0 0 0 0
0 0 0 0 0 0 0 0 0 0 0 0 0 0 0 0 0 0 0 0 0 0 0 0 0 0 0 0 0 0 0 0 0 0 0 0 0 0 0 0 0 0 0
0 0 0 0 0 0 0 0 0 0 0 0 0 0 0 0 0 0 0 0 0 0 0 0 0 0 0 0 0 0 0 0 0 0 0 0 0 0 0 0 0 0 0
0 0 0 0 0 0 0 0 0 0 0 0 0 0 0 0 0 0 0 0 0 0 0 0 0 0 0 0 0 0 0 0 0 0 0 0 0 0 0 0 0 0 0
0 0 0 0 0 0 0 0 0 0 0 0 0 0 0 0 0 0 0 0 0 0 0 0 0 0 0 0 0 0 0 0 0 0 0 0 0 0 0 0 0 0 0
0 0 0 0 0 0 0 0 0 0 0 0 0 0 0 0 0 0 0 0 0 0 0 0 0 0 0 0 0 0 0 0 0 0 0 0 0 0 0 0 0 0 0

GEFSGL_con_prob3kmehi_180.txt.gz
EHI
20 19 16 12 9 8 7 6 6 6 6 4 2 1 1 1 1 0 0 0 0 0 0 0 0 0 0 0 0 0 0 0 0 0 0 0 0 0 0 0 0 0 0
20 20 17 13 10 9 8 7 7 6 5 4 2 1 1 0 0 0 0 0 0 0 0 0 0 0 0 0 0 0 0 0 0 0 0 0 0 0 0 0 0 0 0
20 20 17 14 11 9 9 8 7 6 4 3 2 1 0 0 0 0 0 0 0 0 0 0 0 0 0 0 0 0 0 0 0 0 0 0 0 0 0 0 0 0 0
21 19 17 14 11 10 10 10 8 6 5 3 2 0 0 0 0 0 0 0 0 0 0 0 0 0 0 0 0 0 0 0 0 0 0 0 0 0 0 0 0 0 0
22 20 17 14 12 10 9 9 7 6 6 5 3 1 0 0 0 0 0 0 0 0 0 0 0 0 0 0 0 0 0 0 0 0 0 0 0 0 0 0 0 0 0
20 17 15 13 11 9 8 6 5 5 6 5 3 1 0 0 0 0 0 0 0 0 0 0 0 0 0 0 0 0 0 0 0 0 0 0 0 0 0 0 0 0 0
17 15 12 12 10 8 5 4 5 5 4 3 2 1 0 0 0 0 0 0 0 0 0 0 0 0 0 0 0 0 0 0 0 0 0 0 0 0 0 0 0 0 0
18 16 14 13 12 9 6 5 4 3 1 1 1 0 0 0 0 0 0 0 0 0 0 0 0 0 0 0 0 0 0 0 0 0 0 0 0 0 0 0 0 0 0
19 17 15 14 12 10 7 4 2 1 0 0 0 0 0 0 0 0 0 0 0 0 0 0 0 0 0 0 0 0 0 0 0 0 0 0 0 0 0 0 0 0 0
16 14 12 11 10 8 5 3 1 0 0 0 0 0 0 0 0 0 0 0 0 0 0 0 0 0 0 0 0 0 0 0 0 0 0 0 0 0 0 0 0 0 0
13 11 10 8 7 5 4 2 1 0 0 0 0 0 0 0 0 0 0 0 0 0 0 0 0 0 0 0 0 0 0 0 0 0 0 0 0 0 0 0 0 0 0
11 10 8 6 4 3 3 2 1 0 0 0 0 0 0 0 0 0 0 0 0 0 0 0 0 0 0 0 0 0 0 0 0 0 0 0 0 0 0 0 0 0 0
10 9 7 5 4 3 3 1 0 0 0 0 0 0 0 0 0 0 0 0 0 0 0 0 0 0 0 0 0 0 0 0 0 0 0 0 0 0 0 0 0 0 0
11 9 7 6 5 3 2 1 0 0 0 0 0 0 0 0 0 0 0 0 0 0 0 0 0 0 0 0 0 0 0 0 0 0 0 0 0 0 0 0 0 0 0
10 9 7 6 4 2 1 0 0 0 0 0 0 0 0 0 0 0 0 0 0 0 0 0 0 0 0 0 0 0 0 0 0 0 0 0 0 0 0 0 0 0 0
10 9 7 5 2 0 0 0 0 0 0 0 0 0 0 0 0 0 0 0 0 0 0 0 0 0 0 0 0 0 0 0 0 0 0 0 0 0 0 0 0 0 0
9 8 5 3 1 0 0 0 0 0 0 0 0 0 0 0 0 0 0 0 0 0 0 0 0 0 0 0 0 0 0 0 0 0 0 0 0 0 0 0 0 0 0
7 6 3 1 0 0 0 0 0 0 0 0 0 0 0 0 0 0 0 0 0 0 0 0 0 0 0 0 0 0 0 0 0 0 0 0 0 0 0 0 0 0 0
5 4 2 0 0 0 0 0 0 0 0 0 0 0 0 0 0 0 0 0 0 0 0 0 0 0 0 0 0 0 0 0 0 0 0 0 0 0 0 0 0 0 0
3 2 0 0 0 0 0 0 0 0 0 0 0 0 0 0 0 0 0 0 0 0 0 0 0 0 0 0 0 0 0 0 0 0 0 0 0 0 0 0 0 0 0
1 0 0 0 0 0 0 0 0 0 0 0 0 0 0 0 0 0 0 0 0 0 0 0 0 0 0 0 0 0 0 0 0 0 0 0 0 0 0 0 0 0 0
0 0 0 0 0 0 0 0 0 0 0 0 0 0 0 0 0 0 0 0 0 0 0 0 0 0 0 0 0 0 0 0 0 0 0 0 0 0 0 0 0 0 0
0 0 0 0 0 0 0 0 0 0 0 0 0 0 0 0 0 0 0 0 0 0 0 0 0 0 0 0 0 0 0 0 0 0 0 0 0 0 0 0 0 0 0
0 0 0 0 0 0 0 0 0 0 0 0 0 0 0 0 0 0 0 0 0 0 0 0 0 0 0 0 0 0 0 0 0 0 0 0 0 0 0 0 0 0 0
0 0 0 0 0 0 0 0 0 0 0 0 0 0 0 0 0 0 0 0 0 0 0 0 0 0 0 0 0 0 0 0 0 0 0 0 0 0 0 0 0 0 0
0 0 0 0 0 0 0 0 0 0 0 0 0 0 0 0 0 0 0 0 0 0 0 0 0 0 0 0 0 0 0 0 0 0 0 0 0 0 0 0 0 0 0

GEFSGL_con_prob3kmehi_186.txt.gz
EHI
32 31 29 26 25 24 21 18 15 12 11 9 8 7 6 7 7 7 6 4 4 4 5 5 6 6 6 6 6 7 8 7 4 2 3 2 1 0 0 1 2 2 2
35 35 32 28 25 23 21 18 15 14 13 11 9 8 9 9 10 9 7 5 5 5 5 6 6 7 7 6 4 4 5 4 2 1 1 1 1 0 0 0 1 1 1
37 37 35 30 27 25 22 18 17 16 15 12 9 9 10 10 10 8 7 7 7 6 6 5 6 7 6 4 2 1 1 1 0 0 0 1 1 1 0 0 0 0 0
37 38 36 32 29 26 23 20 18 17 15 12 8 7 7 7 6 6 6 7 7 6 5 3 3 4 4 3 1 0 0 0 0 0 0 1 1 1 1 1 1 0 0
38 38 35 31 28 25 24 22 19 17 15 12 9 8 7 5 3 3 4 5 5 5 3 2 1 1 1 1 0 0 0 0 0 0 0 0 0 0 1 1 1 0 0
41 38 33 29 25 22 23 22 19 17 16 13 11 10 9 6 2 1 2 2 3 3 1 1 0 0 0 0 0 0 0 0 0 0 0 0 0 0 0 0 0 0 0
40 34 28 25 22 21 21 20 18 16 14 13 11 10 8 5 1 0 0 1 1 1 0 0 0 0 0 0 0 0 0 0 0 0 0 0 0 0 0 0 0 0 0
36 31 24 21 20 20 20 19 16 14 13 11 10 8 6 3 0 0 0 0 0 0 0 0 0 0 0 0 0 0 0 0 0 0 0 0 0 0 0 0 0 0 0
32 29 24 20 19 20 19 18 17 15 12 9 7 7 5 2 0 0 0 0 0 0 0 0 0 0 0 0 0 0 0 1 1 0 0 0 0 0 0 0 0 0 0
30 29 24 20 19 20 20 18 16 14 11 8 6 6 4 1 0 0 0 0 0 0 0 0 0 0 0 0 0 0 1 2 2 1 0 0 0 0 0 0 0 0 0
28 27 23 20 19 20 20 17 14 11 9 7 5 5 3 1 0 0 0 0 0 0 0 0 0 0 0 0 0 0 1 2 3 2 0 0 0 0 0 0 0 0 0
24 22 20 19 18 17 17 15 13 9 7 5 4 3 1 0 0 0 0 0 0 0 0 0 0 0 0 0 0 0 1 1 2 1 0 0 0 0 0 0 0 0 0
20 18 17 16 15 14 14 13 12 9 5 4 3 2 1 0 0 0 0 0 0 0 0 0 0 0 0 0 0 0 0 0 0 0 0 0 0 0 0 0 0 0 0
19 18 15 14 14 13 12 12 11 7 4 3 3 2 1 0 0 0 0 0 0 0 0 0 0 0 0 0 0 0 0 0 0 0 0 0 0 0 0 0 0 0 0
20 19 17 14 13 12 11 9 8 5 3 3 3 2 1 0 0 0 0 0 0 0 0 0 0 0 0 0 0 0 0 0 0 0 0 0 0 0 0 0 0 0 0
21 20 18 15 12 10 9 7 4 3 2 2 2 1 0 0 0 0 0 0 0 0 0 0 0 0 0 0 0 0 0 0 0 0 0 0 0 0 0 0 0 0 0
19 19 17 13 10 8 7 6 3 1 1 1 1 0 0 0 0 0 0 0 0 0 0 0 0 0 0 0 0 0 0 0 0 0 0 0 0 0 0 0 0 0 0
16 15 14 12 9 7 6 5 4 2 1 0 0 0 0 0 0 0 0 0 0 0 0 0 0 0 0 0 0 0 0 0 0 0 0 0 0 0 0 0 0 0 0
13 12 11 9 7 6 5 4 3 2 1 0 0 0 0 0 0 0 0 0 0 0 0 0 0 0 0 0 0 0 0 0 0 0 0 0 0 0 0 0 0 0 0
9 8 7 6 5 4 3 1 1 1 0 0 0 0 0 0 0 0 0 0 0 0 0 0 0 0 0 0 0 0 0 0 0 0 0 0 0 0 0 0 0 0 0
5 4 4 4 4 3 2 0 0 0 0 0 0 0 0 0 0 0 0 0 0 0 0 0 0 0 0 0 0 0 0 0 0 0 0 0 0 0 0 0 0 0 0
2 2 2 2 2 2 1 0 0 0 0 0 0 0 0 0 0 0 0 0 0 0 0 0 0 0 0 0 0 0 0 0 0 0 0 0 0 0 0 0 0 0 0
1 1 1 1 1 1 1 0 0 0 0 0 0 0 0 0 0 0 0 0 0 0 0 0 0 0 0 0 0 0 0 0 0 0 0 0 0 0 0 0 0 0 0
0 0 0 0 0 0 0 0 0 0 0 0 0 0 0 0 0 0 0 0 0 0 0 0 0 0 0 0 0 0 0 0 0 0 0 0 0 0 0 0 0 0 0
0 0 0 0 0 0 0 0 0 0 0 0 0 0 0 0 0 0 0 0 0 0 0 0 0 0 0 0 0 0 0 0 0 0 0 0 0 0 0 0 0 0 0
0 0 0 0 0 0 0 0 0 0 0 0 0 0 0 0 0 0 0 0 0 0 0 0 0 0 0 0 0 0 0 0 0 0 0 0 0 0 0 0 0 0 0

GEFSGL_con_prob3kmehi_192.txt.gz
EHI
54 52 47 41 38 38 36 35 34 32 28 26 25 22 16 14 16 16 13 9 7 8 10 11 9 8 7 7 6 4 3 2 1 1 1 1 2 2 3 2 1 1 1
53 51 46 40 38 38 37 35 33 31 28 25 24 22 17 15 16 16 12 9 8 8 9 9 7 6 6 5 5 4 3 2 1 0 0 0 1 1 2 2 1 1 1
51 50 47 42 40 39 38 36 33 30 27 24 22 20 17 15 15 14 11 9 8 7 6 5 4 4 4 3 3 3 2 1 0 0 0 0 0 0 1 1 0 0 1
52 51 49 47 44 40 38 36 33 30 26 24 22 18 15 12 11 11 10 9 8 6 4 3 3 3 2 2 2 2 1 0 0 0 0 0 0 0 0 0 0 0 0
55 54 53 52 45 38 34 33 32 31 27 25 22 18 13 9 7 7 8 8 7 6 4 3 3 2 1 1 1 1 0 0 0 0 0 0 0 0 0 0 0 0 0
53 54 54 51 41 32 28 29 29 28 26 23 20 17 12 7 4 3 4 5 7 6 5 3 2 1 0 0 0 0 0 0 0 0 0 0 0 0 0 0 0 0 0
51 52 52 47 37 28 25 25 25 24 23 21 18 16 11 6 2 1 2 4 6 6 4 2 1 0 0 0 0 0 0 0 0 0 0 0 0 0 0 0 0 0 0
51 50 49 44 36 29 25 23 23 21 20 19 18 15 11 6 2 0 1 2 4 4 3 1 0 0 0 0 0 0 0 0 0 0 0 0 0 0 0 0 0 0 0
49 48 44 40 34 29 25 23 21 20 18 18 17 14 10 6 2 0 1 2 3 3 2 1 0 0 0 0 0 0 0 0 0 0 0 0 0 0 0 0 0 0 0
47 44 40 35 31 28 25 23 20 18 17 16 15 12 10 6 2 0 1 2 3 3 1 0 0 0 0 0 0 0 0 0 0 0 0 0 0 0 0 0 0 0 0
43 42 38 32 27 25 24 21 19 18 17 15 12 10 9 7 2 0 1 2 2 2 1 0 0 0 0 0 0 0 0 0 0 0 0 0 0 0 0 0 0 0 0
38 37 34 28 24 22 21 20 18 18 18 14 11 10 9 7 2 0 0 1 1 1 0 0 0 0 0 0 0 0 0 0 0 0 0 0 0 0 0 0 0 0 0
33 31 27 23 21 21 20 19 18 18 17 14 11 10 10 7 3 0 0 0 0 0 0 0 0 0 0 0 0 0 0 0 0 0 0 0 0 0 0 0 0 0 0
29 26 21 19 20 21 20 19 18 17 17 15 13 12 10 8 4 1 0 0 0 0 0 0 0 0 0 0 0 0 0 0 0 0 0 0 0 0 0 0 0 0 0
25 23 19 17 19 21 20 17 15 15 13 12 12 11 10 7 4 1 0 0 0 0 0 0 0 0 0 0 0 0 0 0 0 0 0 0 0 0 0 0 0 0 0
22 20 17 16 19 20 18 14 11 9 7 6 7 7 6 4 2 0 0 0 0 0 0 0 0 0 0 0 0 0 0 0 0 0 0 0 0 0 0 0 0 0 0
19 16 13 14 16 17 15 12 9 7 4 2 3 3 2 1 0 0 0 0 0 0 0 0 0 0 0 0 0 0 0 0 0 0 0 0 0 0 0 0 0 0 0
14 12 11 12 13 13 12 10 8 7 5 3 2 1 1 0 0 0 0 0 0 0 0 0 0 0 0 0 0 0 0 0 0 0 0 0 0 0 0 0 0 0 0
8 9 11 12 12 11 9 8 6 6 5 3 1 0 0 0 0 0 0 0 0 0 0 0 0 0 0 0 0 0 0 0 0 0 0 0 0 0 0 0 0 0 0
5 6 9 11 11 9 7 5 4 4 3 2 1 0 0 0 0 0 0 0 0 0 0 0 0 0 0 0 0 0 0 0 0 0 0 0 0 0 0 0 0 0 0
5 5 7 8 8 7 4 3 2 3 2 1 0 0 0 0 0 0 0 0 0 0 0 0 0 0 0 0 0 0 0 0 0 0 0 0 0 0 0 0 0 0 0
6 5 5 6 6 4 2 2 1 1 1 1 0 0 0 0 0 0 0 0 0 0 0 0 0 0 0 0 0 0 0 0 0 0 0 0 0 0 0 0 0 0 0
5 4 4 5 5 3 2 2 2 1 0 0 0 0 0 0 0 0 0 0 0 1 1 1 1 0 0 0 0 0 0 0 0 0 0 0 0 0 0 0 0 0 0
2 3 3 4 4 3 3 3 2 1 0 0 0 0 0 0 0 0 0 0 0 1 2 2 1 0 0 0 0 0 0 0 0 0 0 0 0 0 0 0 0 0 0
0 1 2 3 3 3 3 3 2 1 0 0 0 0 0 0 0 1 0 0 0 1 1 1 1 0 0 0 0 0 0 0 0 0 0 0 0 0 0 0 0 0 0
0 1 2 2 2 2 3 3 2 1 1 1 0 0 0 0 0 1 0 0 0 0 0 0 0 0 0 0 0 0 0 0 0 0 0 0 0 0 0 0 0 0 0

GEFSGL_con_prob3kmehi_198.txt.gz
EHI
44 40 35 33 32 30 28 24 21 19 18 17 15 12 6 5 5 5 4 4 4 2 1 1 0 0 0 0 0 0 0 0 0 0 0 0 0 0 0 0 0 0 0
43 40 38 36 33 31 28 24 20 19 18 16 15 11 8 7 8 7 5 4 3 3 2 1 1 1 1 0 0 0 0 0 0 0 0 0 0 0 0 0 0 0 0
44 42 41 40 36 32 29 24 20 19 18 16 15 13 11 10 10 8 6 4 3 3 3 2 1 2 1 1 1 0 0 0 0 0 0 0 0 0 0 0 0 0 0
46 44 43 40 35 31 28 24 20 18 17 16 16 15 12 10 9 8 6 5 4 3 2 2 2 2 1 0 0 0 0 0 0 0 0 0 0 0 0 0 0 0 0
48 45 40 35 31 27 24 22 18 15 14 15 15 13 10 8 6 6 5 4 3 2 1 1 1 1 0 0 0 0 0 0 0 0 0 0 0 0 0 0 0 0 0
49 43 35 29 25 23 19 17 16 13 12 14 13 10 6 5 3 2 2 1 1 1 1 0 0 0 0 0 0 0 0 0 0 0 0 0 0 0 0 0 0 0 0
45 40 31 25 21 19 16 15 15 13 12 11 11 9 6 4 3 1 0 0 0 1 1 0 0 0 0 0 0 0 0 0 0 0 0 0 0 0 0 0 0 0 0
38 34 28 23 19 17 16 16 15 13 11 10 10 9 8 5 3 1 0 0 0 1 1 0 0 0 0 0 0 0 0 0 0 0 0 0 0 0 0 0 0 0 0
32 29 25 20 18 17 16 16 15 12 11 10 10 10 8 5 3 2 0 0 0 0 0 0 0 0 0 0 0 0 0 0 0 0 0 0 0 0 0 0 0 0 0
27 25 22 18 17 16 16 15 14 12 11 11 10 10 8 5 2 1 0 0 0 0 0 0 0 0 0 0 0 0 0 0 0 0 0 0 0 0 0 0 0 0 0
24 22 19 16 15 15 14 14 14 12 12 11 10 9 8 6 3 1 0 0 0 0 0 0 0 0 0 0 0 0 0 0 0 0 0 0 0 0 0 0 0 0 0
24 21 16 13 12 12 13 13 14 13 13 12 11 9 8 6 3 1 0 0 0 0 0 0 0 0 0 0 0 0 0 0 0 0 0 0 0 0 0 0 0 0 0
21 17 12 9 9 10 12 13 14 14 13 12 11 9 8 6 3 1 0 0 0 0 0 0 0 0 0 0 0 0 0 0 0 0 0 0 0 0 0 0 0 0 0
18 14 9 7 7 9 10 12 13 13 13 12 10 9 9 6 3 1 0 0 0 0 0 0 0 0 0 0 0 0 0 0 0 0 0 0 0 0 0 0 0 0 0
15 12 8 7 6 7 8 9 10 10 10 9 8 8 7 6 3 1 0 0 0 0 0 0 0 0 0 0 0 0 0 0 0 0 0 0 0 0 0 0 0 0 0
12 9 7 6 5 5 5 7 7 6 5 4 4 5 5 4 3 1 0 0 0 0 0 0 0 0 0 0 0 0 0 0 0 0 0 0 0 0 0 0 0 0 0
11 8 5 5 4 3 4 5 5 3 2 1 2 2 3 3 2 1 0 0 0 0 0 0 0 0 0 0 0 0 0 0 0 0 0 0 0 0 0 0 0 0 0
10 7 4 4 3 3 3 4 4 4 3 2 1 1 1 2 1 0 0 0 0 0 0 0 0 0 0 0 0 0 0 0 0 0 0 0 0 0 0 0 0 0 0
9 6 4 3 3 2 1 2 3 3 3 3 1 0 0 0 0 0 0 0 0 0 0 0 0 0 0 0 0 0 0 0 0 0 0 0 0 0 0 0 0 0 0
7 5 4 3 3 1 0 1 2 3 3 3 2 1 0 0 0 0 0 0 0 0 0 0 0 0 0 0 0 0 0 0 0 0 0 0 0 0 0 0 0 0 0
6 4 3 3 2 1 0 1 3 3 3 3 2 1 0 0 1 0 0 0 0 0 0 0 0 0 0 0 0 0 0 0 0 0 0 0 0 0 0 0 0 0 0
4 3 2 2 2 1 1 2 2 3 3 2 2 1 0 0 0 0 0 0 0 0 0 0 0 0 0 0 0 0 0 0 0 0 0 0 0 0 0 0 0 0 0
2 1 1 1 1 1 1 1 1 2 1 1 1 0 0 0 0 0 0 0 0 0 0 0 0 0 0 0 0 0 0 0 0 0 0 0 0 0 0 0 0 0 0
1 0 0 0 0 0 0 0 0 0 0 0 0 0 0 0 0 0 0 0 0 0 0 0 0 0 0 0 0 0 0 0 0 0 0 0 0 0 0 0 0 0 0
0 0 0 0 0 0 0 0 0 0 0 0 0 0 0 0 0 0 0 0 0 0 0 0 0 0 0 0 0 0 0 0 0 0 0 0 0 0 0 0 0 0 0
0 0 0 0 0 0 0 0 0 0 0 0 0 0 0 0 0 0 0 0 0 0 0 0 0 0 0 0 0 0 0 0 0 0 0 0 0 0 0 0 0 0 0

GEFSGL_con_prob3kmehi_204.txt.gz
EHI
16 16 16 16 16 16 18 19 18 15 11 9 9 10 8 6 4 4 4 4 3 3 2 1 0 0 1 0 0 0 0 1 2 2 1 0 0 0 0 0 0 0 0
17 18 19 18 17 17 19 20 20 17 14 12 11 10 7 5 5 6 6 5 4 4 3 1 1 1 2 1 0 0 0 0 1 1 0 0 0 0 0 0 0 0 0
18 19 20 20 19 17 17 19 20 18 15 13 12 10 8 6 7 8 7 6 6 5 4 3 2 3 3 2 1 0 0 0 0 0 0 0 0 0 0 0 0 0 0
19 20 22 23 20 17 15 16 17 15 13 11 10 9 8 7 7 7 7 7 6 6 4 3 3 3 2 2 1 0 0 0 0 0 0 0 0 0 0 0 0 0 0
19 21 23 23 20 16 14 14 14 13 11 9 8 9 8 7 7 6 6 6 6 5 3 2 2 1 1 1 0 0 0 0 0 0 0 0 0 0 0 0 0 0 0
17 19 19 19 17 14 13 12 12 11 10 7 7 8 8 6 6 6 6 5 5 3 1 1 1 0 0 0 0 0 0 0 0 0 0 0 0 0 0 0 0 0 0
16 15 15 14 13 12 12 12 12 11 9 7 6 6 6 5 4 4 3 3 2 1 0 0 0 0 0 0 0 0 0 0 0 0 0 0 0 0 0 0 0 0 0
18 16 14 12 10 10 11 13 13 11 10 8 6 6 4 3 3 3 1 1 0 0 0 0 0 0 0 0 0 0 0 0 0 0 0 0 0 0 0 0 0 0 0
21 19 15 11 9 7 9 11 12 13 11 9 7 5 4 3 3 2 1 0 0 0 0 0 0 0 0 0 0 0 0 0 0 0 0 0 0 0 0 0 0 0 0
21 19 14 11 8 7 7 8 11 13 12 9 7 5 4 3 3 2 1 0 0 0 0 0 0 0 0 0 0 0 0 0 0 0 0 0 0 0 0 0 0 0 0
19 16 13 10 8 6 5 6 8 10 10 9 7 5 4 3 2 1 0 0 0 0 0 0 0 0 0 0 0 0 0 0 0 0 0 0 0 0 0 0 0 0 0
16 14 11 9 6 4 3 3 4 5 6 6 6 5 5 3 2 0 0 0 0 0 0 0 0 0 0 0 0 0 0 0 0 0 0 0 0 0 0 0 0 0 0
12 11 8 6 4 2 1 1 2 2 2 2 3 4 4 3 2 1 1 1 0 0 0 0 0 0 0 0 0 0 0 0 0 0 0 0 0 0 0 0 0 0 0
7 7 5 4 3 2 1 1 1 1 0 0 2 3 3 3 3 3 2 2 1 1 0 0 0 0 0 0 0 0 0 0 0 0 0 0 0 0 0 0 0 0 0
4 4 2 2 2 1 0 0 0 0 0 0 1 2 2 2 2 2 2 2 2 2 1 0 0 0 0 0 0 0 0 0 0 0 0 0 0 0 0 0 0 0 0
3 3 3 2 1 1 1 0 0 0 0 0 1 1 1 1 1 1 1 1 2 2 1 1 0 0 0 0 0 0 0 0 0 0 0 0 0 0 0 0 0 0 0
4 4 4 3 2 2 2 1 0 0 0 0 0 0 0 0 0 0 0 0 1 1 2 2 1 0 0 0 0 0 0 0 0 0 0 0 0 0 0 0 0 0 0
6 5 4 3 3 3 2 1 0 0 0 0 0 0 0 0 0 0 0 0 1 1 3 3 2 1 0 0 0 0 0 0 0 0 0 0 0 0 0 0 0 0 0
5 5 4 3 3 3 2 1 0 0 0 0 0 0 0 0 0 0 0 1 2 3 3 3 2 1 0 0 0 0 0 0 0 0 0 0 0 0 0 0 0 0 0
5 4 3 3 3 3 1 0 0 0 0 0 0 0 0 0 0 1 1 1 3 3 3 3 2 1 0 0 0 0 0 0 0 0 0 0 0 0 0 0 0 0 0
5 4 2 3 3 2 1 0 0 0 0 0 0 0 0 0 0 1 2 3 3 3 3 3 2 1 0 0 0 0 0 0 0 0 0 0 0 0 0 0 0 0 0
5 4 3 3 3 2 1 0 0 0 0 0 0 0 0 0 0 1 2 3 3 3 3 3 2 1 0 0 0 0 0 0 0 0 0 0 0 0 0 0 0 0 0
3 3 3 3 3 2 0 0 0 0 0 0 0 0 0 0 0 0 1 3 3 3 3 3 2 1 0 0 0 0 0 0 0 0 0 0 0 0 0 0 0 0 0
1 1 1 2 2 1 0 0 0 0 0 0 0 0 0 0 0 0 1 2 3 3 3 2 1 0 0 0 0 0 0 0 0 0 0 0 0 0 0 0 0 0 0
0 0 0 1 1 1 0 0 0 0 0 0 0 0 0 0 0 0 0 1 2 2 1 1 0 0 0 0 0 0 0 0 0 0 0 0 0 0 0 0 0 0 0
0 0 0 0 0 0 0 0 0 0 0 0 0 0 0 0 0 0 0 0 1 1 0 0 0 0 0 0 0 0 0 0 0 0 0 0 0 0 0 0 0 0 0

GEFSGL_con_prob3kmehi_210.txt.gz
EHI
30 28 26 25 24 21 20 20 21 21 21 20 19 18 19 18 15 13 14 14 13 13 11 9 8 7 6 7 7 8 9 9 6 5 7 6 4 2 1 1 1 1 1
31 30 28 27 26 24 22 21 21 21 21 21 20 20 20 18 16 15 15 15 14 12 10 8 7 7 6 7 7 8 9 9 6 5 6 5 4 2 1 1 1 0 0
33 33 31 29 29 27 24 22 22 21 20 19 19 19 19 17 17 16 16 15 14 11 9 7 6 7 7 7 7 8 9 8 7 5 4 3 2 1 0 0 0 0 0
33 32 31 29 28 25 22 20 19 18 16 15 15 16 16 15 14 14 14 15 14 12 10 8 7 7 8 7 7 7 9 9 7 6 4 2 1 1 0 0 0 1 1
33 32 31 28 25 21 19 17 16 14 14 14 13 13 13 12 11 11 12 13 13 13 12 10 8 7 6 5 5 6 7 8 7 5 4 2 1 2 1 0 0 1 2
37 35 32 29 25 21 18 17 17 17 16 15 14 12 11 9 8 8 9 11 12 12 12 11 8 6 3 2 2 2 4 5 4 3 3 2 1 1 0 0 0 1 2
41 39 35 31 28 23 20 20 22 23 21 17 14 12 10 8 7 5 6 8 11 11 11 10 7 4 3 2 2 2 2 2 1 1 1 1 0 0 0 0 0 1 2
43 40 37 34 30 27 24 24 25 25 23 18 13 11 10 8 5 3 3 6 9 9 9 8 6 4 4 4 4 5 4 2 1 0 0 0 0 0 0 0 0 0 1
44 42 39 35 32 29 27 26 26 24 21 17 12 11 10 8 3 1 2 4 6 7 7 6 5 4 4 4 5 6 5 2 1 0 0 0 0 0 0 0 0 0 0
43 42 38 34 31 29 27 27 26 24 20 14 9 8 8 6 3 1 1 3 4 4 4 3 3 3 3 2 4 5 3 1 0 0 0 0 0 0 0 0 0 0 0
41 40 36 31 28 25 24 25 25 23 18 12 7 5 5 5 4 2 1 1 2 1 1 1 2 2 1 1 2 3 1 0 0 0 0 0 0 0 0 0 0 0 0
41 39 34 29 24 21 19 19 20 19 14 9 6 4 3 4 4 3 1 0 0 0 0 1 2 1 0 0 0 1 0 0 0 0 0 0 0 0 0 0 0 0 0
40 37 32 26 21 16 14 13 14 13 9 6 4 3 3 3 3 2 1 0 0 0 0 1 1 1 0 0 0 0 0 0 0 0 0 0 0 0 0 0 0 0 0
38 33 27 23 17 14 11 10 10 9 6 4 3 3 3 3 3 2 2 1 0 0 0 1 1 1 0 0 0 0 0 0 0 0 0 0 0 0 0 0 0 0 0
33 28 22 18 15 12 10 9 7 5 3 3 3 3 3 3 3 3 2 1 0 0 0 1 2 2 1 1 0 0 0 0 0 0 0 0 0 0 0 0 0 0 0
27 23 18 16 15 12 9 6 3 2 1 2 2 2 2 2 2 2 1 1 0 0 0 1 2 3 3 2 1 1 1 1 1 0 0 0 0 0 0 0 0 0 0
22 19 16 15 15 12 8 5 2 0 0 1 1 1 1 1 1 1 0 0 0 0 0 0 1 2 3 3 3 2 2 2 2 1 0 0 0 0 0 0 0 0 0
16 15 14 14 13 11 8 6 4 2 1 1 0 0 0 0 0 0 0 0 0 0 0 0 0 1 2 3 3 3 3 3 3 2 1 0 0 0 0 0 0 0 0
13 12 11 12 11 10 8 7 5 3 2 2 1 1 0 0 0 0 0 0 0 0 0 0 0 0 1 3 3 3 3 3 3 2 1 0 0 0 0 0 0 0 0
11 9 9 9 9 9 7 6 4 3 3 3 3 2 1 0 0 0 0 0 0 0 0 0 0 0 1 2 3 3 3 3 3 1 1 1 0 0 0 0 0 0 0
8 7 6 6 6 6 5 4 3 3 3 3 3 3 2 0 0 0 0 0 0 0 0 0 0 0 0 1 3 3 3 3 3 2 1 1 0 0 0 0 0 0 0
7 6 5 5 4 2 2 2 3 3 3 3 3 3 1 0 0 0 0 0 0 0 0 0 0 0 0 1 2 3 3 3 2 2 1 1 0 0 0 0 0 0 0
7 6 5 4 3 1 0 1 1 2 3 3 3 3 1 1 1 1 0 0 0 0 0 0 0 0 0 1 2 3 3 2 1 1 0 0 0 0 0 0 0 0 0
6 6 4 3 2 1 0 0 0 1 2 2 2 3 2 2 2 1 0 0 0 0 0 0 0 0 0 0 1 2 2 2 1 0 0 0 0 0 0 0 0 0 0
5 4 3 2 2 1 0 0 0 0 0 0 1 2 1 1 1 0 0 0 0 0 0 0 0 0 0 0 1 2 2 1 0 0 0 0 0 0 0 0 0 0 0
4 2 1 1 1 0 0 0 0 0 0 0 0 1 0 0 0 0 0 0 0 0 0 0 0 0 0 0 0 1 1 0 0 0 0 0 0 0 0 0 0 0 0

GEFSGL_con_prob3kmehi_216.txt.gz
EHI
53 52 50 48 43 38 35 34 37 37 35 31 26 23 20 19 18 19 19 18 15 13 12 11 11 12 14 16 16 14 12 10 9 7 5 5 6 6 5 4 2 1 1
56 54 50 47 45 41 38 35 36 37 34 30 26 24 22 20 18 18 19 17 14 11 10 9 9 11 13 14 14 13 11 9 9 8 5 4 5 6 5 4 2 2 2
60 58 53 49 47 44 40 36 35 35 33 29 27 26 24 21 19 17 17 16 14 12 10 8 8 9 11 11 10 10 9 7 7 8 5 3 4 5 5 3 1 1 1
63 60 56 52 49 46 40 35 33 33 31 29 28 26 23 20 18 16 15 15 15 13 11 10 9 9 9 9 8 8 7 6 6 6 5 3 3 4 4 2 0 0 0
62 60 57 54 51 46 40 36 33 31 29 29 30 27 22 17 15 13 13 13 12 10 9 9 9 9 9 8 7 6 6 5 5 4 3 3 2 2 2 0 0 0 0
62 61 59 55 51 45 40 36 34 30 29 30 32 30 23 15 10 9 10 11 9 7 7 6 6 7 7 6 5 4 3 4 3 2 1 1 1 1 0 0 0 0 0
64 64 61 56 51 46 40 36 33 31 29 31 33 32 24 14 6 5 6 8 7 6 5 4 3 3 3 5 4 2 2 2 2 1 1 1 1 1 1 0 0 0 0
65 64 61 58 54 49 43 38 34 32 29 29 31 31 24 13 5 3 3 5 7 6 5 4 3 2 2 3 3 2 2 2 2 2 2 2 1 1 1 0 0 0 0
66 64 61 59 57 53 47 41 37 33 29 27 29 29 23 13 5 2 1 3 5 6 6 6 6 4 1 1 1 2 2 2 2 2 2 1 0 0 0 0 0 0 0
64 63 60 58 56 54 48 43 39 35 30 27 26 24 19 11 5 1 1 2 4 6 8 9 7 4 1 0 1 2 2 1 1 2 1 0 0 0 0 0 0 0 0
60 59 57 54 52 50 47 43 39 34 29 27 25 21 16 9 4 1 1 2 3 6 8 9 7 3 0 0 1 2 2 2 1 2 2 1 0 0 0 0 0 0 0
57 55 53 50 48 46 44 40 36 31 27 26 24 21 16 9 4 1 0 1 2 4 7 7 5 1 0 0 0 1 1 2 2 3 2 1 0 0 0 0 0 0 0
55 52 49 47 45 43 41 37 31 28 25 24 22 20 16 10 6 4 2 0 0 2 4 4 2 0 0 0 0 0 1 2 3 3 3 1 0 0 0 0 0 0 0
51 48 44 42 41 40 38 32 26 22 20 20 18 16 13 10 8 6 4 2 1 1 1 1 0 0 0 0 0 0 1 3 3 3 3 2 1 1 1 1 0 0 0
46 42 36 34 35 35 32 26 18 13 12 12 12 11 9 7 5 4 4 3 2 1 0 0 0 0 0 0 0 1 3 4 4 4 4 4 2 1 2 2 1 1 0
41 36 30 28 29 30 28 21 12 6 5 5 5 6 5 4 2 1 2 2 2 1 0 0 0 0 0 0 0 2 3 3 3 4 5 4 3 2 2 3 3 2 1
37 32 26 23 23 25 24 18 12 6 3 2 2 2 1 1 0 0 0 1 1 1 0 0 1 1 1 0 0 2 3 3 3 4 4 4 3 3 3 3 3 2 2
31 27 23 20 19 19 18 16 12 9 6 4 3 1 0 0 0 0 0 0 0 0 0 1 2 2 2 1 1 1 2 3 3 3 3 3 3 3 3 3 2 1 1
25 23 20 18 16 14 14 14 12 10 7 6 4 2 1 0 0 0 0 0 0 0 0 1 2 3 3 2 1 0 1 2 3 3 3 3 3 3 3 3 2 1 0
19 17 16 15 13 11 11 12 12 10 7 6 5 3 1 0 0 0 0 0 0 0 0 0 1 2 3 2 1 0 0 1 1 3 3 3 3 3 3 3 3 1 0
14 12 10 9 9 9 10 11 11 10 8 6 6 4 2 0 0 0 0 0 0 0 0 0 0 1 2 1 0 0 0 0 1 2 3 3 3 3 3 3 3 2 1
11 9 7 6 6 8 9 9 9 9 7 6 6 4 1 0 0 0 0 0 0 0 0 0 0 0 0 0 0 0 0 0 1 2 3 3 3 3 3 3 3 2 1
5 5 5 4 5 6 6 6 6 7 6 6 5 3 1 1 1 1 1 0 0 0 0 0 0 0 0 0 0 0 0 0 0 1 2 3 3 3 3 3 3 1 0
3 3 4 3 3 4 3 3 4 5 5 4 4 3 2 2 2 1 1 1 1 0 0 0 0 0 0 0 0 0 0 0 0 0 1 2 2 3 3 3 2 1 0
5 4 3 3 2 2 2 2 3 4 4 3 3 3 3 3 2 1 1 1 1 0 0 0 0 0 0 0 0 0 0 0 0 0 1 2 1 2 3 3 1 0 0
6 5 3 2 1 2 3 3 3 4 3 2 2 3 3 3 2 2 2 1 0 0 1 1 1 0 0 0 0 0 0 0 0 0 1 2 1 1 3 2 1 0 0

GEFSGL_con_prob3kmehi_222.txt.gz
EHI
42 38 33 27 20 16 16 18 16 12 12 11 8 6 7 8 9 10 9 7 6 6 7 7 6 6 6 6 5 4 4 3 3 2 1 0 0 0 0 0 0 0 0
44 43 38 29 22 19 18 17 14 12 11 11 9 8 7 9 10 11 10 8 6 6 6 5 5 5 6 6 6 5 4 4 3 3 1 0 0 0 0 0 0 0 0
50 49 43 34 28 24 21 17 15 14 12 11 11 10 9 9 10 11 10 7 6 5 3 3 3 3 5 5 5 5 5 4 4 3 2 1 0 0 0 0 0 0 0
51 50 46 40 33 27 22 19 17 15 14 13 11 11 9 8 8 9 8 6 3 2 1 1 1 1 2 3 3 2 3 3 3 3 3 1 0 0 0 0 0 0 0
46 47 47 43 36 28 22 19 18 16 15 13 12 11 11 10 9 8 6 4 1 0 0 0 0 0 0 1 1 0 1 1 1 2 2 2 1 0 0 0 0 0 0
43 45 46 44 38 29 23 22 21 19 17 15 14 13 12 11 9 8 6 3 1 1 0 0 0 0 0 0 0 0 0 0 0 1 1 2 2 1 0 0 0 0 0
42 44 45 43 38 29 24 24 24 23 21 20 18 16 14 10 7 6 5 3 3 2 1 0 0 0 0 0 0 0 0 0 0 0 0 1 1 1 0 0 0 0 0
43 45 45 42 38 32 27 25 25 25 24 23 20 17 13 8 5 3 2 2 2 2 1 0 0 0 0 0 0 0 0 0 0 0 0 0 0 0 0 0 0 0 0
45 44 44 42 39 35 31 27 26 25 24 23 19 15 12 6 2 1 0 1 1 1 1 0 0 1 1 0 0 0 0 0 0 0 0 0 0 0 0 0 0 0 0
44 42 40 39 38 36 32 28 26 25 23 20 17 14 11 6 1 0 0 0 0 0 0 0 1 1 1 0 0 1 0 0 0 0 0 0 0 0 0 0 0 0 0
43 40 37 36 34 32 28 26 25 24 21 19 16 13 11 6 1 0 0 0 0 0 0 0 1 1 1 0 0 0 0 0 0 0 0 0 0 0 0 0 0 0 0
40 39 36 34 32 28 25 23 22 21 20 17 14 12 9 5 2 1 0 0 0 0 0 0 0 0 0 0 0 0 0 0 0 0 0 0 0 0 0 0 0 0 0
37 36 35 32 28 25 22 20 20 18 16 14 12 8 6 4 3 2 1 0 0 0 1 0 0 0 0 0 0 0 0 0 0 0 0 1 0 0 0 0 0 0 0
34 34 32 27 23 20 19 17 16 14 12 10 8 6 5 4 4 3 1 0 0 0 0 0 0 0 0 0 0 0 0 0 0 0 0 0 0 0 0 0 0 0 0
30 30 27 23 19 17 16 13 11 9 8 7 6 5 4 4 3 2 1 0 0 0 0 0 0 0 0 0 0 0 0 0 0 0 0 0 1 1 0 0 0 0 0
26 26 24 21 18 17 15 10 6 4 4 4 4 3 3 2 1 0 0 0 0 0 0 0 0 0 0 0 0 0 0 0 0 0 0 1 2 2 1 1 0 0 0
23 22 21 19 17 15 13 9 5 2 1 1 1 1 1 1 0 0 0 0 0 0 0 0 0 0 0 0 0 0 0 0 0 0 0 1 2 3 3 2 1 0 0
19 19 18 17 16 14 12 10 8 4 1 0 0 0 0 0 0 0 0 0 0 0 0 0 0 0 0 0 0 0 0 0 0 0 0 0 1 2 3 3 2 1 0
16 16 16 16 16 14 11 10 9 7 3 1 0 0 0 0 0 0 0 0 0 0 0 0 0 0 0 0 0 0 0 0 0 0 0 0 0 1 2 3 3 1 1
13 13 14 15 15 13 11 10 10 8 4 1 0 0 0 0 0 0 0 0 0 0 0 0 0 0 0 0 0 0 0 0 0 0 0 0 0 0 1 2 3 3 2
12 11 11 13 13 11 10 10 10 9 6 2 0 0 0 0 0 0 0 0 0 0 0 0 0 0 0 0 0 0 0 0 0 0 0 0 0 0 0 1 2 3 3
9 9 10 11 10 9 9 8 8 8 6 3 0 0 0 0 0 0 0 0 0 0 0 0 0 0 0 0 0 0 0 0 0 0 0 0 0 0 0 0 1 2 3
6 7 9 9 8 7 6 6 6 5 3 1 0 0 0 0 0 0 0 0 0 0 0 0 0 0 0 0 0 0 0 0 0 0 0 0 0 0 0 0 0 1 2
4 5 7 6 6 5 3 3 3 2 1 0 0 0 0 0 0 0 0 0 0 0 0 0 0 0 0 0 0 0 0 0 0 0 0 0 0 0 0 0 0 1 2
4 4 5 4 3 2 1 1 1 1 0 0 0 0 0 0 0 0 0 0 0 0 0 0 0 0 0 0 0 0 0 0 0 0 0 0 0 0 0 0 0 0 1
3 4 4 4 2 1 0 0 0 0 0 0 0 0 0 0 0 0 0 0 0 0 0 0 0 0 0 0 0 0 0 0 0 0 0 0 0 0 0 0 0 0 0

GEFSGL_con_prob3kmehi_228.txt.gz
EHI
17 17 16 12 10 8 7 6 6 6 5 5 4 5 5 5 4 3 3 3 3 4 5 6 6 6 5 4 3 4 5 5 4 3 3 3 1 0 0 0 0 0 0
18 20 20 17 13 11 9 9 9 8 8 7 6 7 6 5 4 4 4 4 3 3 4 5 5 5 4 3 3 3 4 4 3 3 3 3 2 1 0 0 0 0 0
21 24 25 22 18 15 13 11 10 10 8 8 8 9 8 6 5 6 6 5 4 4 3 4 5 4 3 1 1 2 2 2 2 2 2 2 2 1 0 0 0 0 0
23 24 24 22 18 17 15 12 11 9 8 8 10 10 9 7 7 9 10 8 7 5 4 4 4 3 2 0 0 1 1 0 1 1 0 1 1 0 0 0 0 0 0
23 23 22 19 17 16 15 13 11 10 10 11 13 13 11 8 8 10 11 10 8 7 5 4 4 2 1 0 0 0 0 0 0 0 0 0 0 0 0 0 0 0 0
22 22 23 21 18 15 14 12 10 11 13 16 17 16 13 10 8 8 10 10 8 7 6 6 4 2 0 0 0 0 0 0 0 0 0 0 0 0 0 0 0 0 0
21 23 25 26 22 17 14 11 9 12 15 16 17 16 15 11 7 6 7 8 8 8 7 6 4 1 0 0 0 0 0 0 0 0 0 0 0 0 0 0 0 0 0
22 22 26 29 25 20 16 12 10 11 13 13 14 14 14 11 7 4 5 7 8 8 7 5 2 0 0 0 0 0 0 0 0 0 0 0 0 0 0 0 0 0 0
27 26 28 29 27 23 19 14 10 9 9 10 11 11 11 10 7 4 4 6 7 7 6 3 1 0 0 0 0 0 0 0 0 0 0 0 0 0 0 0 0 0 0
30 29 29 28 25 22 19 15 10 8 7 8 9 9 9 8 6 4 4 6 6 6 5 2 0 0 0 0 0 0 0 0 0 0 0 0 0 0 0 0 0 0 0
26 25 25 24 21 17 16 15 12 9 7 7 7 7 7 7 5 4 3 4 5 6 5 3 1 0 0 0 0 0 0 0 0 0 0 0 0 0 0 0 0 0 1
18 18 18 19 17 14 14 14 13 10 7 6 6 6 6 6 4 3 2 2 3 4 4 3 1 0 0 0 0 0 0 0 0 0 0 0 0 0 0 0 0 0 1
12 13 14 15 15 13 13 13 12 10 7 5 4 4 4 5 4 2 1 0 1 2 2 2 1 0 0 0 0 0 0 0 0 0 0 0 0 0 0 0 0 0 1
9 11 12 13 13 12 11 12 12 10 8 6 5 4 3 4 3 3 1 0 0 1 1 1 0 0 0 0 0 0 0 0 0 0 0 0 0 0 0 0 0 0 0
9 10 11 12 12 11 10 10 10 9 8 7 6 4 3 3 3 2 1 0 0 0 0 0 0 0 0 0 0 0 0 0 0 0 0 0 0 0 0 0 0 0 0
10 11 11 11 12 12 11 10 9 8 6 5 5 4 4 3 2 1 1 0 0 0 0 0 0 0 0 0 0 0 0 0 0 0 0 0 0 0 0 0 0 0 0
11 11 11 12 15 16 15 13 11 8 6 4 4 4 3 2 1 0 0 0 0 0 0 0 0 0 0 0 0 0 0 0 0 0 0 0 0 0 0 0 0 0 0
10 11 13 15 18 18 17 15 13 11 7 5 4 3 2 1 0 0 0 0 0 0 0 0 0 0 0 0 0 0 0 0 0 0 0 0 0 0 0 0 0 0 0
7 9 12 16 18 18 17 15 13 10 8 6 5 2 1 0 0 0 0 0 0 0 0 0 0 0 0 0 0 0 0 0 0 0 0 0 0 0 0 0 0 0 0
5 8 11 14 15 16 15 14 11 9 7 6 5 3 1 0 0 0 0 0 0 0 0 0 0 0 0 0 0 0 0 0 0 0 0 0 0 0 0 0 0 0 0
6 7 10 12 14 14 13 11 10 9 8 6 4 3 1 0 0 0 0 0 0 0 0 0 0 0 0 0 0 0 0 0 0 0 0 0 0 0 0 0 0 0 0
7 7 8 10 12 12 11 9 9 9 8 6 4 2 1 0 0 0 0 0 0 0 0 0 0 0 0 0 0 0 0 0 0 0 0 0 0 0 0 0 0 0 0
7 8 8 9 10 10 9 8 8 8 7 6 4 3 1 0 0 0 0 0 0 0 0 0 0 0 0 0 0 0 0 0 0 0 0 0 0 0 0 0 0 0 0
7 8 8 8 7 6 6 7 7 7 5 4 3 3 2 1 0 0 0 0 0 0 0 0 0 0 0 0 0 0 0 0 0 0 0 0 0 0 0 0 0 0 0
8 7 7 6 4 3 3 4 5 4 4 3 3 3 3 1 1 0 0 0 0 0 0 0 0 0 0 0 0 0 0 0 0 0 0 0 0 0 0 0 0 0 0
9 8 5 3 2 2 1 1 2 3 3 3 3 3 3 2 2 1 0 0 0 0 0 0 0 0 0 0 0 0 0 0 0 0 0 0 0 0 0 0 0 0 0

GEFSGL_con_prob3kmehi_234.txt.gz
EHI
18 18 19 19 19 20 20 21 20 19 18 19 18 15 13 14 16 16 14 11 9 9 10 11 12 13 12 10 8 8 10 11 10 7 4 5 6 5 4 4 3 3 3
20 20 20 20 21 22 22 21 21 20 20 20 20 18 15 13 15 16 15 12 11 11 12 13 13 13 12 10 8 8 8 9 9 6 5 6 6 6 5 4 3 3 3
22 22 22 21 21 23 23 22 21 21 20 20 21 21 17 13 14 16 16 15 13 13 13 13 13 14 13 11 9 8 8 8 8 6 5 5 6 6 6 4 2 2 2
24 24 24 24 22 22 23 22 20 19 18 19 21 22 18 15 14 16 17 17 15 14 13 12 13 14 13 11 10 9 9 9 9 7 3 3 3 4 4 2 1 1 1
26 26 28 28 25 23 23 22 20 19 18 19 20 20 18 15 12 14 16 17 16 16 14 13 13 12 11 10 9 8 9 10 10 7 3 1 2 3 2 1 0 0 1
29 28 28 29 28 27 26 25 25 23 20 20 20 19 17 14 10 9 12 15 17 16 14 13 12 10 9 8 7 6 7 8 9 8 5 2 3 3 1 0 0 0 1
29 28 27 28 30 31 32 32 31 28 24 22 20 19 18 14 8 4 6 12 15 15 14 14 13 11 11 10 8 5 5 5 6 8 6 4 4 3 1 0 0 0 0
29 28 27 28 31 33 35 35 33 31 29 26 22 21 20 14 6 1 3 9 13 13 14 15 15 13 12 12 10 8 6 5 4 4 4 3 3 2 1 0 0 0 0
29 29 28 28 31 34 36 36 33 31 31 29 26 25 24 16 6 1 3 8 12 13 14 15 15 13 11 10 10 10 8 6 3 1 1 1 1 1 0 0 0 0 0
29 30 30 30 30 31 33 35 33 30 29 27 25 25 24 16 5 0 2 8 12 12 13 14 12 10 7 6 8 9 8 6 4 2 1 1 1 1 1 1 1 1 1
30 31 31 29 28 27 29 32 31 28 26 25 23 22 19 11 3 0 2 5 9 11 12 12 10 6 3 3 4 7 6 5 4 3 3 3 3 3 3 3 2 3 3
30 29 27 25 25 25 26 26 25 23 24 25 22 20 15 9 4 2 1 1 4 8 9 9 7 3 1 0 1 3 3 3 3 5 5 6 5 5 4 4 3 4 4
27 26 23 20 19 20 20 19 18 19 21 24 22 18 13 9 7 5 2 1 2 4 6 6 4 1 0 0 0 1 1 2 3 4 5 6 5 4 4 3 3 3 4
22 22 19 16 13 13 13 13 14 15 17 21 21 17 12 9 8 7 5 3 2 3 4 4 3 1 1 2 1 1 2 3 3 3 4 5 4 3 3 3 3 3 3
18 16 14 13 11 11 10 10 9 10 11 14 16 14 10 8 7 6 5 4 4 4 3 3 3 3 3 3 3 3 4 4 4 3 3 3 2 2 3 3 3 3 2
17 14 11 11 11 11 10 8 6 6 5 5 7 7 7 5 4 3 3 3 3 4 3 3 3 3 3 3 3 3 3 3 3 2 2 1 1 1 2 3 3 2 1
17 15 11 10 11 12 11 9 6 4 3 2 1 1 2 2 1 1 1 1 2 3 3 3 3 3 3 3 3 2 2 2 2 1 0 0 0 1 1 2 3 2 1
15 13 12 10 10 11 12 11 8 6 5 4 3 1 0 0 0 0 0 1 2 3 3 3 3 3 3 3 3 2 2 2 1 0 0 1 1 1 1 2 3 2 1
13 11 11 10 9 9 10 11 10 9 8 7 6 4 1 1 1 1 1 2 4 4 3 3 3 3 3 3 3 2 1 1 1 0 0 1 2 2 2 2 2 1 0
12 9 8 10 9 7 8 10 11 11 9 9 8 6 4 3 3 3 3 4 4 4 4 3 3 3 2 2 1 1 0 0 0 0 0 1 1 1 1 1 1 0 0
7 5 5 7 8 7 7 9 10 10 10 10 9 7 5 5 6 6 5 5 4 4 3 3 2 1 1 1 0 0 0 0 0 0 0 0 0 0 0 0 0 0 0
5 5 5 6 6 6 5 6 7 8 9 11 10 7 5 6 6 6 6 6 5 4 3 2 2 1 0 0 0 0 0 0 0 0 0 0 0 0 0 0 0 0 0
6 7 7 6 6 4 4 4 4 6 9 11 9 7 6 6 6 6 6 6 6 5 3 2 2 1 0 0 0 0 0 0 0 0 0 0 0 0 0 0 0 0 0
7 8 7 6 6 4 3 4 5 7 8 9 8 7 6 6 6 6 6 6 6 5 4 3 3 2 1 0 0 0 0 0 0 0 0 0 0 0 0 0 0 0 0
7 7 7 7 6 5 4 5 7 8 7 7 7 7 6 4 4 5 5 4 4 4 3 3 3 3 2 1 0 0 0 0 0 0 0 0 0 0 0 0 0 0 0
6 6 6 7 7 6 5 6 7 7 7 7 7 7 6 4 2 4 5 4 3 3 3 3 3 3 2 1 0 0 0 0 0 0 0 0 0 0 0 0 0 0 0

GEFSGL_con_prob3kmehi_240.txt.gz
EHI
44 41 38 37 35 32 32 34 35 35 36 38 39 37 34 31 28 26 22 20 22 23 22 20 19 18 19 19 18 17 17 17 18 18 16 14 12 9 5 3 2 2 3
44 42 40 39 37 36 36 36 37 37 38 39 38 37 35 34 32 28 22 20 22 23 22 20 19 19 20 19 16 16 17 16 17 16 14 12 12 11 8 5 2 1 2
43 42 40 39 40 40 40 39 40 41 41 40 38 38 38 38 37 33 26 22 23 22 21 21 20 22 22 19 17 16 16 15 16 15 11 10 12 12 10 7 3 1 1
43 42 40 41 41 42 41 40 40 41 41 40 39 39 40 39 38 34 27 24 24 23 22 22 22 22 22 20 18 17 15 15 15 13 11 10 11 10 9 7 4 2 1
45 44 44 43 43 42 40 38 38 39 39 39 38 38 38 36 32 29 25 23 24 23 21 21 20 18 17 16 16 15 14 14 15 14 12 12 11 9 7 5 4 3 1
53 50 48 45 43 42 40 37 37 37 38 38 37 36 35 30 24 20 20 21 22 22 20 19 18 15 12 12 12 11 11 11 12 13 13 13 11 9 7 5 5 3 1
57 53 49 45 43 41 40 39 38 38 38 37 36 34 33 28 19 13 14 19 21 21 20 18 17 14 12 11 10 8 7 7 7 9 12 12 11 10 8 6 5 3 2
52 50 48 45 42 41 41 41 41 40 39 38 36 34 32 26 16 9 9 15 19 20 21 19 17 15 13 11 10 8 8 7 5 6 8 10 10 8 7 5 4 3 2
47 47 47 45 43 42 42 42 43 42 42 40 37 35 33 26 15 7 7 12 16 18 19 18 16 13 11 9 9 11 11 10 8 6 6 6 5 4 4 3 3 1 1
44 46 47 45 43 42 43 43 43 42 41 39 36 35 34 27 15 6 6 11 15 16 17 16 13 10 7 6 8 10 11 10 10 8 6 4 3 2 2 3 2 1 0
46 48 48 45 42 40 41 41 40 38 36 33 31 32 32 26 14 6 4 9 13 14 15 15 12 6 3 3 4 6 7 7 9 10 8 5 4 2 1 2 2 1 1
48 49 49 47 42 39 40 38 35 33 30 26 26 28 28 23 14 6 3 4 8 11 12 12 9 4 1 1 1 3 4 5 7 9 8 7 5 3 1 1 2 2 2
46 46 47 46 41 38 36 34 31 29 26 23 23 24 25 22 15 8 4 2 3 5 7 6 5 2 1 0 1 2 4 6 7 7 7 6 4 2 2 3 3 3 2
42 42 41 39 35 31 30 29 28 27 24 23 23 23 21 19 15 11 7 4 2 2 3 3 3 2 1 2 2 3 4 5 6 6 6 5 3 2 3 4 4 3 3
37 37 34 30 26 24 23 23 23 21 20 19 18 19 18 15 11 8 7 5 3 3 3 3 3 3 3 3 3 5 5 5 5 5 4 4 3 3 3 3 3 2 2
32 31 28 25 21 19 19 18 16 13 11 9 9 12 12 9 4 3 3 3 2 2 3 3 3 3 3 3 4 5 5 5 5 5 4 3 3 3 2 1 1 1 1
27 27 25 22 20 19 19 17 14 11 8 5 3 4 6 4 1 0 1 1 0 1 3 3 3 4 4 4 4 5 6 7 7 5 4 3 3 2 1 0 0 0 0
23 23 23 22 21 21 20 19 17 14 13 9 5 2 2 1 0 0 0 0 0 1 2 3 4 5 6 6 5 5 6 8 8 5 3 3 3 1 0 0 0 0 0
20 21 22 23 22 21 20 19 16 14 14 13 10 6 3 1 0 0 0 1 1 2 3 4 5 6 7 6 6 5 5 6 6 4 3 3 2 1 0 0 0 0 0
18 17 18 19 19 17 16 14 14 13 12 11 11 10 7 3 2 2 1 1 2 4 5 6 6 6 6 6 6 5 4 4 4 3 3 2 1 0 0 0 0 0 0
13 13 13 14 14 13 11 10 11 11 10 9 9 9 9 7 5 5 4 3 4 5 6 6 6 6 6 6 6 6 5 4 4 3 2 1 0 0 0 0 0 0 0
8 10 12 12 12 11 10 10 9 9 8 8 7 7 8 8 8 7 7 8 7 7 7 6 6 6 6 6 6 6 6 5 4 2 1 0 0 0 0 0 0 0 0
5 7 9 11 11 11 11 10 9 9 9 8 7 6 6 7 8 9 10 11 11 10 8 6 6 7 7 7 6 6 5 4 3 1 0 0 0 0 0 0 0 0 0
4 4 6 8 9 9 9 9 9 9 9 9 8 6 5 6 8 9 10 11 12 12 10 8 8 8 8 6 6 5 4 3 3 2 1 0 0 0 0 0 0 0 0
3 3 4 5 6 7 8 9 9 9 9 10 9 7 6 6 8 9 10 10 11 11 10 9 8 8 7 5 4 4 3 2 2 1 1 0 0 0 0 0 0 0 0
3 3 4 4 4 4 6 8 8 8 9 10 10 8 7 7 7 8 9 10 10 10 9 7 7 6 5 5 4 3 3 1 1 1 0 0 0 0 0 0 0 0 0

GEFSGL_con_prob3kmehi_246.txt.gz
EHI
34 33 27 22 21 19 14 10 6 5 6 5 7 10 10 8 7 7 8 8 6 4 3 3 3 4 5 4 4 5 6 6 4 2 1 2 2 2 3 3 1 0 0
32 31 28 25 23 20 16 12 9 8 7 7 9 10 10 9 8 8 8 8 7 5 4 3 3 4 5 5 6 6 6 6 5 3 2 2 3 3 3 3 2 1 0
28 28 29 28 25 21 19 17 14 12 11 11 12 13 12 10 9 8 8 7 7 7 6 4 5 5 6 6 6 6 6 6 5 4 2 2 3 3 3 3 2 1 0
27 26 27 27 25 23 21 21 20 17 16 15 16 16 14 11 10 9 7 6 7 8 7 6 7 8 8 6 5 5 4 4 5 4 3 3 3 3 3 3 2 1 0
27 26 25 25 24 23 23 24 23 22 21 19 19 18 16 13 12 11 8 7 7 8 7 6 7 9 10 8 6 5 5 5 5 6 5 4 3 3 3 3 3 1 0
27 27 26 25 24 24 25 26 27 25 23 20 19 18 16 14 12 10 9 10 10 9 7 6 7 8 9 8 6 5 5 6 7 7 6 5 4 3 3 3 3 2 1
28 29 28 26 25 24 25 27 26 24 22 20 18 15 13 12 9 6 7 11 12 9 7 6 7 8 8 7 5 4 5 6 7 7 7 6 5 4 3 3 3 3 3
32 32 30 28 27 24 23 23 21 20 20 20 17 14 12 10 6 3 5 9 9 8 6 6 7 8 8 7 6 5 6 6 5 5 5 5 3 3 3 3 3 3 3
32 30 29 29 28 25 21 18 17 17 18 18 17 15 13 10 5 1 2 4 5 5 6 6 7 8 8 7 6 6 6 5 4 3 2 2 1 1 1 3 4 3 2
28 27 26 27 27 24 20 18 16 15 15 15 15 14 14 10 4 0 1 3 5 5 6 7 7 7 6 5 5 6 5 4 3 2 1 0 0 0 1 2 4 4 2
25 25 26 26 25 22 19 18 16 15 14 14 14 13 13 10 5 1 1 3 5 6 6 6 6 5 3 2 2 4 3 3 3 3 2 1 1 0 0 1 3 3 1
25 25 26 25 22 17 15 15 15 16 16 16 15 14 13 11 6 1 0 1 3 3 3 3 3 2 1 0 0 1 1 1 3 3 3 3 2 1 0 1 2 2 1
26 25 24 23 19 14 12 12 13 14 16 17 16 15 15 13 8 3 0 0 1 1 1 1 1 1 0 0 0 0 0 1 2 3 3 3 4 4 2 0 1 1 0
24 24 23 21 18 15 12 12 12 12 12 13 15 15 16 15 11 6 2 0 0 0 0 0 0 0 0 0 0 0 0 1 2 3 3 4 5 5 3 1 1 0 1
20 20 20 18 16 14 13 11 9 8 9 10 11 12 14 14 11 7 3 1 0 0 0 0 0 0 0 0 0 0 0 1 2 3 3 3 4 4 3 3 2 2 2
15 14 14 13 12 13 12 10 7 6 6 6 6 6 7 8 6 4 1 0 0 0 0 0 0 0 0 0 0 0 1 1 3 3 3 3 3 3 3 3 3 3 3
12 10 8 8 10 12 12 9 8 7 5 3 2 2 2 2 2 0 0 0 0 0 0 0 0 0 0 0 0 1 2 3 3 3 3 3 3 3 3 3 3 3 3
10 9 7 7 8 11 11 10 9 9 7 4 2 1 0 0 0 0 0 0 0 0 0 0 0 0 0 0 0 1 2 3 3 3 3 3 3 3 3 3 3 2 1
9 9 7 6 7 9 10 10 10 10 9 7 5 3 1 1 0 0 0 0 0 0 0 0 0 0 0 0 0 0 1 3 3 3 3 3 3 3 3 3 3 1 0
6 6 5 4 5 6 7 8 8 9 9 8 7 4 2 1 1 1 1 1 1 1 1 1 1 0 0 0 0 0 1 2 3 3 3 3 3 3 3 3 2 1 0
3 3 2 1 2 3 4 4 5 5 6 7 6 4 2 1 2 2 2 2 2 2 2 2 1 0 0 0 0 0 1 2 3 3 3 3 3 3 3 3 2 1 0
1 1 0 0 1 1 1 2 2 3 3 4 3 3 2 1 2 3 3 3 3 1 1 1 1 0 0 0 1 1 1 3 4 3 3 3 3 3 3 2 1 0 0
0 0 0 0 0 0 0 1 1 1 1 1 1 2 2 2 2 3 3 3 2 1 0 0 0 0 0 1 2 3 3 4 5 4 3 3 3 3 2 1 0 0 0
0 0 0 0 0 0 0 0 0 0 0 0 0 1 1 1 2 2 3 3 2 1 1 0 0 0 0 1 2 3 4 5 5 5 4 3 3 2 1 0 0 0 0
0 0 0 0 0 0 0 0 0 0 0 0 0 0 0 0 1 1 1 2 2 2 2 1 1 2 1 0 1 1 3 3 3 4 4 4 3 2 1 0 0 0 0
0 0 0 0 0 1 1 1 0 0 0 0 0 0 0 0 0 0 0 1 2 3 3 2 2 3 2 1 0 0 1 1 1 2 3 4 3 2 2 1 0 0 0

GEFSGL_con_prob3kmehi_252.txt.gz
EHI
13 12 9 7 5 3 2 2 2 3 4 5 4 2 0 0 0 0 0 0 1 2 4 3 3 3 4 5 5 5 5 5 5 4 3 3 3 3 2 1 0 0 0
12 11 10 7 6 5 3 3 3 4 5 5 4 2 1 1 0 0 0 0 2 3 5 4 3 4 5 5 5 4 5 5 5 4 3 4 4 4 3 2 1 1 1
10 11 10 8 8 7 6 6 6 6 5 4 4 4 4 3 2 2 2 2 3 5 6 6 6 7 8 7 6 4 4 4 5 3 3 4 4 4 3 3 2 2 2
13 12 10 10 10 9 8 7 8 8 7 5 5 7 7 6 6 7 7 7 7 7 6 6 7 9 9 8 6 5 4 3 4 3 4 4 4 4 3 3 3 3 3
16 13 11 10 10 10 10 8 7 9 10 8 7 9 9 8 9 10 10 10 11 9 7 6 6 7 7 6 4 3 3 3 3 4 5 6 5 4 4 3 3 3 3
18 15 12 10 9 10 11 9 8 9 10 10 10 12 12 10 9 8 7 9 10 8 6 5 5 6 5 3 2 1 1 2 3 4 5 6 7 6 5 4 3 3 3
17 16 14 12 10 11 13 12 11 9 9 10 12 14 14 11 7 4 3 5 7 6 5 5 5 5 4 2 1 0 1 1 1 2 4 5 7 8 6 3 2 3 3
13 15 16 15 15 16 17 15 12 10 10 10 12 14 14 11 6 2 1 3 4 4 4 4 4 5 4 2 2 2 2 1 0 1 3 5 6 6 5 2 1 1 2
12 14 17 18 18 20 19 15 12 10 11 11 12 12 12 9 5 2 2 4 4 4 3 3 3 3 2 1 2 3 4 3 2 1 1 3 3 3 2 1 0 1 1
16 17 19 20 20 18 15 13 11 10 11 11 11 10 10 8 6 3 3 6 7 5 4 3 2 2 1 0 1 3 4 5 4 3 1 1 2 1 1 1 1 1 2
19 19 19 20 19 16 13 13 12 11 10 10 10 10 10 9 7 4 3 6 7 6 4 3 2 1 0 0 0 1 3 4 4 3 2 2 2 2 1 1 1 2 2
18 18 17 18 17 15 14 13 12 11 11 10 10 10 10 10 8 4 2 3 5 6 5 4 2 1 0 0 0 0 1 1 1 1 1 2 3 3 3 2 1 1 1
17 15 14 14 14 13 13 13 12 11 11 10 9 9 10 10 8 5 2 1 2 3 4 3 2 1 0 0 0 0 0 0 0 0 0 1 2 3 3 3 3 2 1
17 14 12 12 12 12 11 10 10 10 10 10 9 9 9 9 9 6 3 2 1 2 2 1 1 0 0 0 0 0 0 0 0 0 0 0 1 2 3 3 3 3 2
14 12 11 10 10 10 8 7 7 8 8 8 8 8 8 8 7 5 3 2 2 1 1 0 0 0 0 0 0 0 0 0 0 0 0 0 0 1 2 3 3 3 3
8 8 7 8 8 7 5 4 4 4 4 4 4 4 5 5 4 2 1 1 1 1 0 0 0 0 0 0 0 0 0 0 0 0 0 0 0 0 1 2 3 3 3
4 4 4 5 5 5 4 3 3 3 2 1 1 1 2 2 1 0 0 0 0 0 0 0 0 0 0 0 0 0 0 0 0 0 0 0 0 0 0 1 3 3 3
3 3 3 3 3 3 3 3 3 3 2 1 0 0 0 0 0 0 0 0 0 0 0 0 0 0 0 0 0 0 0 0 0 0 0 0 0 0 0 1 2 3 3
3 3 2 2 2 1 2 3 3 3 3 1 0 0 0 0 0 0 0 0 0 0 0 0 0 0 0 0 0 0 0 0 0 0 0 0 0 0 0 1 2 3 3
2 1 1 1 1 1 2 2 2 2 2 1 0 0 0 0 0 0 0 0 0 0 0 0 0 0 0 0 0 0 0 0 0 0 0 0 0 0 0 0 1 3 3
1 0 0 0 0 0 1 1 1 1 1 0 0 0 0 0 0 0 0 0 0 0 0 1 1 1 1 0 0 0 0 0 0 0 0 0 0 0 0 0 1 2 3
0 0 0 0 0 0 0 0 0 0 0 0 0 0 0 0 0 0 0 0 0 0 0 1 2 2 1 0 0 0 0 0 0 0 0 0 0 0 0 0 0 1 2
0 0 0 0 0 0 0 0 0 0 0 0 0 0 0 0 0 0 0 0 0 0 0 1 1 1 1 0 0 0 0 0 0 1 0 0 0 0 0 0 0 1 2
0 0 0 0 0 0 0 0 0 0 0 0 0 0 0 0 0 0 0 0 0 0 0 0 0 0 0 0 0 0 0 0 0 0 0 0 0 0 0 0 1 1 2
0 0 0 0 0 0 0 0 0 0 0 0 0 0 0 0 0 0 0 0 0 0 0 0 0 0 0 0 0 0 0 0 0 0 0 0 0 0 0 0 2 3 4
0 0 0 0 0 0 0 0 0 0 0 0 0 0 0 0 0 0 0 0 0 0 0 0 0 0 0 0 0 0 0 0 0 0 0 0 0 0 0 0 2 4 5

GEFSGL_con_prob3kmehi_258.txt.gz
EHI
17 17 17 19 19 19 17 14 12 11 12 14 15 14 12 12 13 13 13 15 15 12 12 13 12 13 14 15 16 18 18 15 12 12 12 12 13 13 13 15 12 8 8
18 19 19 20 20 20 19 17 16 15 16 16 14 12 11 12 14 14 14 15 15 15 14 14 13 14 16 17 18 18 18 16 13 13 12 12 13 13 14 14 11 8 7
21 23 23 22 21 21 20 19 19 19 18 16 13 9 9 11 13 14 14 15 18 19 18 16 14 14 16 18 20 20 19 18 16 14 12 12 12 14 13 10 8 7 7
27 27 27 25 22 21 20 20 20 19 17 14 11 8 8 9 11 14 15 17 19 21 20 18 15 13 13 16 19 21 20 19 17 14 12 11 13 14 12 6 5 7 9
30 28 27 25 22 20 19 19 19 18 17 15 12 11 10 10 11 14 17 18 18 18 17 16 15 13 12 11 13 16 17 17 15 13 10 11 14 16 12 7 6 8 11
32 28 25 23 21 19 18 18 19 21 21 19 17 15 14 12 11 11 13 15 16 16 14 13 12 12 11 8 7 8 9 10 11 11 10 12 17 18 16 12 11 12 12
33 28 24 23 20 19 18 19 21 22 22 21 19 18 16 13 9 5 6 10 14 14 13 11 10 10 11 8 6 5 6 7 8 10 11 14 18 21 20 17 16 15 14
34 31 27 24 22 22 23 23 23 23 22 21 20 18 16 12 6 1 2 6 9 11 11 10 11 12 12 10 10 10 11 11 9 8 10 12 15 18 20 19 17 16 15
33 30 28 26 25 26 28 27 26 26 25 24 23 21 18 13 6 1 1 4 6 9 11 11 12 13 12 11 13 16 18 17 12 7 7 8 9 11 13 14 15 16 15
29 28 27 27 28 30 31 31 31 29 28 27 26 23 20 15 8 2 2 4 7 10 13 14 13 11 8 7 12 18 21 20 16 10 7 7 7 7 7 8 11 13 13
27 26 25 27 29 30 31 33 33 31 28 26 24 22 19 15 9 3 2 4 8 13 15 15 13 9 4 2 6 13 15 16 17 14 10 9 9 9 9 8 9 10 11
26 24 23 24 26 28 31 32 31 29 26 24 22 19 17 15 11 5 2 2 6 11 13 13 11 6 1 0 2 4 5 7 11 14 12 10 10 11 12 11 11 11 12
22 21 20 20 22 25 27 26 25 26 25 23 22 20 18 16 14 9 5 2 4 7 8 8 5 2 0 0 0 0 0 1 6 10 10 9 9 10 11 10 10 10 10
18 18 19 20 21 22 21 19 19 22 23 22 20 19 18 16 14 11 8 5 5 6 6 4 3 3 2 2 1 1 0 0 2 6 7 7 7 7 7 6 5 5 6
15 17 19 20 19 19 19 17 16 16 17 16 16 16 15 12 9 8 8 7 6 6 6 5 6 7 6 6 5 3 1 0 1 3 4 5 5 5 4 3 3 2 2
16 17 18 17 17 18 18 16 13 10 8 8 9 10 9 7 5 4 4 4 4 5 6 8 9 10 10 9 8 6 3 1 0 1 3 4 4 5 5 3 2 1 1
16 17 18 17 16 17 17 15 12 9 5 3 3 4 4 3 2 1 1 1 1 2 5 7 9 10 10 9 8 7 5 2 2 2 3 5 5 6 6 4 3 2 2
15 17 19 19 17 16 16 16 13 10 7 4 2 2 1 1 0 0 0 0 0 1 3 4 5 6 7 7 6 7 5 4 4 3 4 5 6 6 6 5 4 3 2
14 16 18 18 16 15 15 15 13 10 7 5 4 3 1 0 0 0 0 0 0 0 1 2 2 3 4 4 5 6 5 4 4 3 4 5 7 7 6 6 4 2 2
12 12 13 14 14 14 13 12 10 7 5 5 5 4 2 1 2 1 0 0 0 0 1 2 2 2 3 4 4 4 4 2 2 2 2 4 5 6 6 5 3 2 2
7 7 7 9 10 9 9 7 5 4 4 4 4 3 2 2 2 2 1 1 0 2 4 4 3 3 3 3 3 2 2 1 1 1 1 1 2 4 4 3 2 1 1
3 3 3 4 4 4 3 3 2 2 2 2 2 1 1 1 1 2 2 1 1 3 5 5 4 3 1 1 1 0 0 0 0 0 0 0 0 1 1 1 1 1 1
1 1 1 1 1 0 0 0 1 1 1 1 1 0 0 0 0 1 1 1 1 2 3 3 3 1 0 0 0 0 0 0 0 0 0 0 0 0 0 0 0 0 0
0 0 0 0 0 0 0 0 0 0 0 0 0 0 0 0 0 0 0 0 0 1 1 1 1 0 0 0 0 0 0 0 0 0 0 0 0 0 0 0 0 0 0
0 0 0 0 0 0 0 0 0 0 0 0 0 0 0 0 0 0 0 0 0 0 0 0 0 0 0 0 0 0 0 0 0 0 0 0 0 0 0 0 0 0 0
0 0 0 0 0 0 0 0 0 0 0 0 0 0 0 0 0 0 0 0 0 0 0 0 0 0 0 0 0 0 0 0 0 0 0 0 0 0 0 0 0 0 0

GEFSGL_con_prob3kmehi_264.txt.gz
EHI
47 44 40 37 31 26 24 25 25 24 23 25 28 28 27 24 22 21 20 19 19 19 18 18 16 13 14 17 17 17 18 19 18 17 15 15 18 17 14 15 15 13 12
45 44 41 38 35 30 27 27 27 26 26 27 29 30 28 25 23 24 24 22 21 21 21 20 17 16 17 19 20 19 19 20 21 20 18 18 19 20 19 18 15 12 10
46 45 44 42 40 36 33 32 32 31 31 31 32 32 29 26 27 28 27 26 24 23 23 21 19 19 20 21 22 22 21 22 23 22 20 20 21 22 24 22 17 13 11
50 51 52 49 45 41 39 37 36 36 36 35 34 32 29 27 28 29 28 26 25 24 22 20 20 20 20 20 19 20 20 21 23 22 21 20 21 23 25 25 21 18 15
54 55 55 53 49 44 41 39 38 37 37 36 35 33 29 25 23 24 25 24 24 22 20 19 18 18 16 15 14 14 16 19 22 22 21 21 22 23 24 25 23 20 20
54 54 54 54 51 46 42 41 41 40 38 36 34 33 31 23 16 15 19 20 20 18 16 16 15 13 12 11 9 7 9 13 18 22 22 21 23 25 25 24 22 20 19
51 51 52 53 52 48 44 44 44 43 40 37 35 35 33 25 14 9 11 15 15 13 13 14 13 10 11 13 11 8 8 9 13 18 20 20 22 25 26 25 22 19 17
49 49 50 51 51 50 47 47 47 45 42 40 39 39 38 29 16 6 7 12 14 13 13 13 13 11 10 13 16 16 15 13 10 11 15 17 17 20 23 24 23 21 19
47 48 49 51 52 51 49 49 48 46 45 44 43 44 42 32 16 6 7 12 15 15 13 11 10 11 9 9 15 21 23 21 15 11 11 11 9 10 14 19 20 20 19
47 48 49 51 52 51 50 49 48 47 46 44 44 43 40 31 17 5 6 11 14 14 12 8 6 7 6 6 11 17 21 22 20 16 12 9 8 7 7 12 17 18 17
45 46 47 48 49 48 48 48 47 45 44 42 40 38 35 27 15 5 3 7 11 12 11 9 6 4 3 3 6 10 13 15 17 17 16 14 13 13 11 11 14 17 16
40 41 41 42 43 42 42 43 43 41 40 39 36 33 30 24 15 5 2 2 5 9 11 9 5 3 2 1 2 4 6 7 10 14 16 17 17 19 18 15 15 17 17
37 36 35 35 35 35 35 35 34 34 34 33 31 28 25 22 16 8 2 0 1 5 7 5 2 1 1 1 1 2 3 4 6 11 14 16 18 20 20 18 16 16 16
33 31 29 27 26 28 29 25 23 25 26 27 26 24 22 20 17 12 6 3 2 4 5 4 3 3 3 3 3 4 5 4 5 7 11 13 15 17 18 18 17 15 14
25 23 20 18 19 23 22 17 14 14 16 18 19 19 18 15 12 10 8 6 5 5 6 8 9 8 7 7 7 8 9 8 6 6 8 9 10 11 12 13 13 11 10
16 14 12 13 16 17 15 12 10 8 7 8 10 11 11 8 5 4 4 5 5 6 7 10 12 11 10 9 10 10 11 11 10 8 7 6 5 5 5 5 6 6 5
11 10 10 11 12 12 10 9 9 7 5 3 3 4 4 2 0 0 1 1 2 4 7 10 11 11 11 10 10 10 11 12 13 11 9 6 4 3 1 1 2 2 2
7 8 9 9 8 8 7 8 8 7 7 5 2 1 1 0 0 0 0 1 1 3 6 8 8 9 10 10 9 9 10 12 14 13 10 8 6 3 2 2 3 3 2
5 7 9 9 8 7 6 6 7 8 9 8 5 2 0 0 0 0 1 2 2 3 5 6 6 7 8 8 9 9 9 10 11 11 11 10 8 5 4 4 4 4 3
5 6 7 8 9 8 7 7 8 8 9 7 4 2 1 0 0 1 2 3 2 3 4 5 5 5 5 5 6 7 7 7 7 7 8 9 8 6 4 3 3 3 3
5 4 4 5 6 6 6 6 7 6 5 3 2 1 0 0 0 1 2 3 3 3 3 3 3 3 2 2 3 4 4 3 4 4 4 5 5 5 4 2 1 1 2
3 3 2 2 2 3 4 5 5 3 1 0 0 0 0 0 0 0 1 2 3 2 2 2 2 2 1 0 0 1 1 1 2 2 2 1 2 3 4 3 1 1 1
2 1 1 1 2 2 3 4 3 1 0 0 0 0 0 0 0 0 0 1 2 2 2 3 2 1 1 0 0 0 0 0 1 1 1 0 0 1 2 2 2 2 1
1 0 0 1 3 2 2 3 2 0 0 0 0 0 0 0 0 1 1 1 3 3 2 2 1 1 0 0 0 0 0 0 0 0 0 0 0 0 0 1 1 2 2
0 0 0 1 2 2 1 1 0 0 0 0 0 0 0 1 1 2 2 2 2 1 1 0 0 0 0 0 0 0 0 0 0 0 0 0 0 0 0 0 0 1 1
0 0 0 0 1 1 0 0 0 0 0 0 0 0 1 2 2 2 2 1 0 0 0 0 0 0 0 0 0 0 0 0 0 0 0 0 0 0 0 0 0 0 0